M I D A S
Marine Information and Data Acquisition System
Tripno 711 of the Zeeleeuw from 2004-05-07 07:14:48 to 2004-05-07 09:23:56
Back to CruiseResearch ActivitiesStationsMapUnderway DataData graphs

EquipmentUnitsComment
TimeDGPSUTC
LatitudeDGPSDM.mWGS84
LongitudeDGPSDM.mWGS84
TemperatureSBE03/SBE38deg celciusITS90
ConductivitySBE21S/mITS90
SalinitySBE21 Practical Salinity Units
ChlorophylAChelsea fluorimeterg/lCalibrated in Aceton
Missing or incorrect values are displayed as -999
Sea surface data collected by the RV Zeeleeuw from 2004-05-07 07:14:48 to 2004-05-07 09:23:56
                                                                                    Next 1000 lines
Time Latitude Longitude Temperature Conductivity Salinity ChlorophylA
2004-05-07 07:14:56 51°13.595 2°56.098 18.679201 0.071589 0.382439 7.578683
2004-05-07 07:15:01 51°13.595 2°56.098 18.651279 0.071589 0.382439 7.544973
2004-05-07 07:15:06 51°13.595 2°56.098 18.645091 0.071589 0.382445 7.544973
2004-05-07 07:15:11 51°13.595 2°56.098 18.645091 0.071589 0.382445 7.544973
2004-05-07 07:15:16 51°13.595 2°56.098 18.66984 0.071589 0.382445 7.578683
2004-05-07 07:15:21 51°13.594 2°56.098 18.7135 0.071589 0.382451 7.544973
2004-05-07 07:15:26 51°13.594 2°56.098 18.746259 0.071589 0.382445 7.544973
2004-05-07 07:15:31 51°13.594 2°56.098 18.747083 0.071589 0.382451 7.544973
2004-05-07 07:15:36 51°13.594 2°56.098 18.733446 0.071589 0.382457 7.544973
2004-05-07 07:15:41 51°13.594 2°56.097 18.733446 0.071589 0.382457 7.544973
2004-05-07 07:15:46 51°13.594 2°56.097 18.69693 0.071589 0.382451 7.544973
2004-05-07 07:15:50 51°13.595 2°56.095 18.672355 0.071589 0.382445 7.578683
2004-05-07 07:15:56 51°13.596 2°56.092 18.641708 0.071589 0.382433 7.544973
2004-05-07 07:16:01 51°13.596 2°56.088 18.202291 0.071589 0.382415 7.578683
2004-05-07 07:16:06 51°13.598 2°56.084 18.200796 0.071589 0.382385 7.578683
2004-05-07 07:16:12 51°13.6 2°56.078 18.200796 0.071589 0.382385 7.578683
2004-05-07 07:16:17 51°13.601 2°56.073 18.236162 0.071589 0.382367 7.578683
2004-05-07 07:16:22 51°13.603 2°56.067 18.204699 0.071589 0.382373 7.578683
2004-05-07 07:16:26 51°13.605 2°56.061 18.233506 0.071589 0.382373 7.578683
2004-05-07 07:16:31 51°13.607 2°56.054 18.270183 0.071589 0.382391 7.578683
2004-05-07 07:16:37 51°13.61 2°56.046 18.315794 0.071589 0.382415 7.578683
2004-05-07 07:16:41 51°13.612 2°56.039 18.315794 0.071589 0.382415 7.578683
2004-05-07 07:16:46 51°13.615 2°56.031 18.302653 0.071589 0.382439 7.544973
2004-05-07 07:16:52 51°13.618 2°56.021 18.325493 0.071589 0.382469 7.578683
2004-05-07 07:16:57 51°13.62 2°56.012 18.330176 0.071589 0.382487 7.544973
2004-05-07 07:17:02 51°13.623 2°56.003 18.355038 0.071589 0.382499 7.544973
2004-05-07 07:17:07 51°13.626 2°55.994 18.367548 0.071589 0.382505 7.544973
2004-05-07 07:17:11 51°13.628 2°55.986 18.367548 0.071589 0.382505 7.544973
2004-05-07 07:17:17 51°13.632 2°55.974 18.341779 0.071589 0.382499 7.578683
2004-05-07 07:17:22 51°13.635 2°55.965 18.312561 0.071589 0.382487 7.544973
2004-05-07 07:17:26 51°13.637 2°55.957 18.345343 0.071589 0.382475 7.578683
2004-05-07 07:17:32 51°13.64 2°55.944 18.359387 0.071589 0.382463 7.544973
2004-05-07 07:17:37 51°13.643 2°55.935 18.394383 0.071589 0.382451 7.578683
2004-05-07 07:17:41 51°13.645 2°55.926 18.394383 0.071589 0.382451 7.578683
2004-05-07 07:17:46 51°13.648 2°55.916 18.406638 0.071589 0.382445 7.578683
2004-05-07 07:17:52 51°13.651 2°55.904 18.37873 0.071589 0.382451 7.544973
2004-05-07 07:17:57 51°13.653 2°55.894 18.336973 0.071589 0.382445 7.544973
2004-05-07 07:18:02 51°13.655 2°55.884 18.336227 0.071589 0.382451 7.544973
2004-05-07 07:18:07 51°13.657 2°55.873 18.308913 0.071589 0.382451 7.578683
2004-05-07 07:18:11 51°13.659 2°55.865 18.308913 0.071589 0.382451 7.578683
2004-05-07 07:18:17 51°13.661 2°55.852 18.323089 0.071589 0.382463 7.578683
2004-05-07 07:18:22 51°13.662 2°55.842 18.330922 0.071589 0.382463 7.612392
2004-05-07 07:18:26 51°13.663 2°55.833 18.332787 0.071589 0.382469 7.578683
2004-05-07 07:18:32 51°13.665 2°55.821 18.33747 0.071589 0.382475 7.612392
2004-05-07 07:18:37 51°13.666 2°55.811 18.31281 0.071589 0.382475 7.578683
2004-05-07 07:18:42 51°13.666 2°55.803 18.31281 0.071589 0.382475 7.578683
2004-05-07 07:18:46 51°13.667 2°55.797 18.34758 0.071589 0.382475 7.578683
2004-05-07 07:18:52 51°13.667 2°55.789 18.372932 0.071589 0.382475 7.578683
2004-05-07 07:18:56 51°13.667 2°55.785 18.369205 0.071589 0.382469 7.578683
2004-05-07 07:19:01 51°13.668 2°55.782 18.382872 0.071589 0.382469 7.578683
2004-05-07 07:19:05 51°13.668 2°55.782 18.38664 0.071589 0.382463 7.578683
2004-05-07 07:19:11 51°13.669 2°55.784 18.38664 0.071589 0.382463 7.578683
2004-05-07 07:19:16 51°13.67 2°55.787 18.388586 0.071589 0.382487 7.544973
2004-05-07 07:19:21 51°13.672 2°55.789 18.37492 0.071589 0.382511 7.578683
2004-05-07 07:19:26 51°13.673 2°55.791 18.308084 0.071589 0.382487 7.578683
2004-05-07 07:19:31 51°13.674 2°55.792 18.32168 0.071589 0.382427 7.544973
2004-05-07 07:19:36 51°13.674 2°55.791 18.357938 0.071589 0.382344 7.578683
2004-05-07 07:19:41 51°13.674 2°55.79 18.357938 0.071589 0.382344 7.578683
2004-05-07 07:19:46 51°13.673 2°55.787 18.347 0.071589 0.38226 7.612392
2004-05-07 07:19:50 51°13.672 2°55.785 18.400345 0.071589 0.382218 7.578683
2004-05-07 07:19:57 51°13.67 2°55.78 18.376991 0.071589 0.38223 7.612392
2004-05-07 07:20:02 51°13.668 2°55.777 18.399145 0.071589 0.382272 7.612392
2004-05-07 07:20:07 51°13.667 2°55.774 18.399145 0.071589 0.382338 7.612392
2004-05-07 07:20:12 51°13.667 2°55.773 18.399145 0.071589 0.382338 7.612392
2004-05-07 07:20:17 51°13.668 2°55.773 18.357358 0.071589 0.382415 7.612392
2004-05-07 07:20:22 51°13.67 2°55.774 18.314468 0.071589 0.382499 7.612392
2004-05-07 07:20:26 51°13.672 2°55.774 18.375417 0.071589 0.382576 7.612392
2004-05-07 07:20:32 51°13.677 2°55.774 18.397778 0.071589 0.38263 7.612392
2004-05-07 07:20:37 51°13.682 2°55.773 18.420918 0.071589 0.382648 7.612392
2004-05-07 07:20:41 51°13.686 2°55.77 18.420918 0.071589 0.382648 7.612392
2004-05-07 07:20:46 51°13.692 2°55.766 18.395128 0.071589 0.38263 7.646101
2004-05-07 07:20:50 51°13.696 2°55.762 18.390822 0.071589 0.382576 7.646101
2004-05-07 07:20:56 51°13.703 2°55.754 18.315131 0.071589 0.382481 7.612392
2004-05-07 07:21:01 51°13.708 2°55.748 18.286358 0.071589 0.382373 7.612392
2004-05-07 07:21:06 51°13.714 2°55.74 18.302446 0.071589 0.382296 7.612392
2004-05-07 07:21:11 51°13.722 2°55.734 18.302446 0.071589 0.382296 7.612392
2004-05-07 07:21:16 51°13.729 2°55.726 18.312644 0.071589 0.382254 7.612392
2004-05-07 07:21:21 51°13.737 2°55.719 18.325452 0.071589 0.382254 7.612392
2004-05-07 07:21:26 51°13.746 2°55.711 18.315587 0.071589 0.382284 7.646101
2004-05-07 07:21:30 51°13.753 2°55.705 18.30514 0.071589 0.382326 7.612392
2004-05-07 07:21:36 51°13.764 2°55.696 18.30485 0.071589 0.382373 7.612392
2004-05-07 07:21:41 51°13.774 2°55.688 18.30485 0.071589 0.382373 7.612392
2004-05-07 07:21:46 51°13.784 2°55.68 18.327731 0.071589 0.382421 7.612392
2004-05-07 07:21:50 51°13.793 2°55.673 18.317245 0.071589 0.382451 7.612392
2004-05-07 07:21:56 51°13.805 2°55.664 18.303731 0.071589 0.382469 7.578683
2004-05-07 07:22:01 51°13.816 2°55.656 18.301077 0.071589 0.382475 7.612392
2004-05-07 07:22:06 51°13.827 2°55.649 18.290878 0.071589 0.382463 7.612392
2004-05-07 07:22:10 51°13.835 2°55.643 18.290878 0.071589 0.382463 7.612392
2004-05-07 07:22:16 51°13.848 2°55.634 18.311815 0.071589 0.382463 7.612392
2004-05-07 07:22:21 51°13.859 2°55.626 18.304311 0.071589 0.382445 7.612392
2004-05-07 07:22:25 51°13.867 2°55.62 18.318157 0.071589 0.382433 7.612392
2004-05-07 07:22:30 51°13.878 2°55.612 18.338962 0.071589 0.382433 7.612392
2004-05-07 07:22:36 51°13.891 2°55.603 18.398979 0.071589 0.382445 7.578683
2004-05-07 07:22:41 51°13.902 2°55.595 18.398979 0.071589 0.382445 7.578683
2004-05-07 07:22:46 51°13.913 2°55.587 18.386764 0.071589 0.382451 7.578683
2004-05-07 07:22:50 51°13.921 2°55.581 18.389621 0.071589 0.382463 7.578683
2004-05-07 07:22:56 51°13.935 2°55.572 18.369122 0.071589 0.382475 7.612392
2004-05-07 07:23:01 51°13.946 2°55.564 18.363861 0.071589 0.382487 7.612392
2004-05-07 07:23:06 51°13.957 2°55.556 18.368169 0.071589 0.382499 7.612392
2004-05-07 07:23:10 51°13.965 2°55.549 18.368169 0.071589 0.382499 7.612392
2004-05-07 07:23:16 51°13.979 2°55.539 18.376246 0.071589 0.382505 7.646101
2004-05-07 07:23:21 51°13.99 2°55.531 18.368832 0.071589 0.382505 7.612392
2004-05-07 07:23:26 51°14.001 2°55.523 18.351475 0.071589 0.382499 7.646101
2004-05-07 07:23:31 51°14.012 2°55.515 18.355576 0.071589 0.382493 7.612392
2004-05-07 07:23:36 51°14.023 2°55.506 18.368956 0.071589 0.382487 7.646101
2004-05-07 07:23:41 51°14.035 2°55.498 18.368956 0.071589 0.382487 7.646101
2004-05-07 07:23:46 51°14.045 2°55.488 18.38018 0.071589 0.382481 7.612392
2004-05-07 07:23:50 51°14.054 2°55.481 18.375252 0.071589 0.382475 7.612392
2004-05-07 07:23:56 51°14.067 2°55.471 18.376494 0.071589 0.382469 7.612392
2004-05-07 07:24:01 51°14.079 2°55.462 18.365187 0.071589 0.382475 7.612392
2004-05-07 07:24:06 51°14.09 2°55.453 18.372725 0.071589 0.382475 7.646101
2004-05-07 07:24:10 51°14.099 2°55.446 18.372725 0.071589 0.382475 7.646101
2004-05-07 07:24:16 51°14.113 2°55.434 18.405893 0.071589 0.382493 7.612392
2004-05-07 07:24:21 51°14.125 2°55.424 18.381132 0.071589 0.382493 7.612392
2004-05-07 07:24:26 51°14.137 2°55.414 18.40523 0.071589 0.382499 7.612392
2004-05-07 07:24:31 51°14.148 2°55.402 18.409204 0.071589 0.382511 7.646101
2004-05-07 07:24:36 51°14.16 2°55.391 18.414627 0.071589 0.382511 7.612392
2004-05-07 07:24:41 51°14.172 2°55.379 18.414627 0.071589 0.382511 7.612392
2004-05-07 07:24:45 51°14.182 2°55.369 18.393638 0.071589 0.382511 7.612392
2004-05-07 07:24:51 51°14.196 2°55.353 18.425968 0.071589 0.382517 7.646101
2004-05-07 07:24:56 51°14.208 2°55.34 18.404982 0.071589 0.382511 7.612392
2004-05-07 07:25:01 51°14.219 2°55.326 18.408749 0.071589 0.382505 7.612392
2004-05-07 07:25:06 51°14.23 2°55.311 18.436727 0.071589 0.382511 7.612392
2004-05-07 07:25:10 51°14.239 2°55.299 18.436727 0.071589 0.382511 7.612392
2004-05-07 07:25:16 51°14.253 2°55.28 18.430768 0.071589 0.382511 7.646101
2004-05-07 07:25:21 51°14.263 2°55.263 18.440244 0.071589 0.382511 7.612392
2004-05-07 07:25:26 51°14.273 2°55.246 18.433706 0.071589 0.382517 7.612392
2004-05-07 07:25:30 51°14.281 2°55.231 18.420008 0.071589 0.382523 7.646101
2004-05-07 07:25:36 51°14.293 2°55.208 18.387592 0.071589 0.382517 7.612392
2004-05-07 07:25:41 51°14.302 2°55.189 18.387592 0.071589 0.382517 7.612392
2004-05-07 07:25:46 51°14.312 2°55.169 18.400842 0.071589 0.382523 7.612392
2004-05-07 07:25:50 51°14.319 2°55.153 18.392354 0.071589 0.382517 7.646101
2004-05-07 07:25:56 51°14.33 2°55.128 18.399062 0.071589 0.382511 7.646101
2004-05-07 07:26:01 51°14.339 2°55.107 18.380553 0.071589 0.382511 7.646101
2004-05-07 07:26:06 51°14.349 2°55.086 18.385274 0.071589 0.382511 7.612392
2004-05-07 07:26:11 51°14.358 2°55.065 18.385274 0.071589 0.382511 7.612392
2004-05-07 07:26:16 51°14.366 2°55.042 18.438589 0.071589 0.382517 7.612392
2004-05-07 07:26:21 51°14.375 2°55.019 18.411398 0.071589 0.382523 7.612392
2004-05-07 07:26:26 51°14.383 2°54.994 18.424147 0.071589 0.38254 7.612392
2004-05-07 07:26:30 51°14.39 2°54.974 18.423857 0.071589 0.38254 7.612392
2004-05-07 07:26:36 51°14.399 2°54.943 18.418808 0.071589 0.38254 7.612392
2004-05-07 07:26:41 51°14.406 2°54.916 18.418808 0.071589 0.38254 7.612392
2004-05-07 07:26:46 51°14.412 2°54.888 18.423195 0.071589 0.38254 7.578683
2004-05-07 07:26:50 51°14.418 2°54.866 18.418683 0.071589 0.382546 7.612392
2004-05-07 07:26:57 51°14.425 2°54.825 18.45609 0.071589 0.382535 7.646101
2004-05-07 07:27:01 51°14.428 2°54.801 18.543073 0.071589 0.38254 7.612392
2004-05-07 07:27:06 51°14.429 2°54.771 18.529727 0.071589 0.382535 7.578683
2004-05-07 07:27:10 51°14.429 2°54.746 18.529727 0.071589 0.382535 7.578683
2004-05-07 07:27:16 51°14.428 2°54.709 18.467713 0.071589 0.382517 7.612392
2004-05-07 07:27:21 51°14.427 2°54.678 18.453939 0.071589 0.382505 7.646101
2004-05-07 07:27:26 51°14.425 2°54.647 18.422864 0.071589 0.382493 7.646101
2004-05-07 07:27:30 51°14.423 2°54.622 18.423691 0.071589 0.382499 7.578683
2004-05-07 07:27:36 51°14.42 2°54.585 18.486695 0.071589 0.382523 7.612392
2004-05-07 07:27:41 51°14.416 2°54.554 18.486695 0.071589 0.382523 7.612392
2004-05-07 07:27:46 51°14.411 2°54.524 18.449884 0.071589 0.382552 7.612392
2004-05-07 07:27:51 51°14.405 2°54.493 18.470815 0.071589 0.382588 7.612392
2004-05-07 07:27:56 51°14.4 2°54.463 18.413634 0.071589 0.382612 7.612392
2004-05-07 07:28:01 51°14.393 2°54.433 18.432341 0.071589 0.382624 7.578683
2004-05-07 07:28:06 51°14.387 2°54.403 18.425512 0.071589 0.382624 7.612392
2004-05-07 07:28:10 51°14.382 2°54.38 18.425512 0.071589 0.382624 7.612392
2004-05-07 07:28:16 51°14.375 2°54.344 18.421581 0.071589 0.382618 7.612392
2004-05-07 07:28:21 51°14.369 2°54.315 18.414917 0.071589 0.382612 7.612392
2004-05-07 07:28:26 51°14.362 2°54.285 18.421622 0.071589 0.3826 7.646101
2004-05-07 07:28:30 51°14.357 2°54.262 18.373719 0.071589 0.382594 7.646101
2004-05-07 07:28:36 51°14.35 2°54.226 18.318364 0.071589 0.382582 7.646101
2004-05-07 07:28:41 51°14.343 2°54.197 18.318364 0.071589 0.382582 7.646101
2004-05-07 07:28:46 51°14.337 2°54.168 18.338423 0.071589 0.382582 7.679811
2004-05-07 07:28:51 51°14.329 2°54.139 18.363737 0.071589 0.382588 7.679811
2004-05-07 07:28:56 51°14.32 2°54.111 18.371441 0.071485 0.382021 7.646101
2004-05-07 07:29:01 51°14.311 2°54.084 18.370282 0.071485 0.382044 7.646101
2004-05-07 07:29:06 51°14.301 2°54.057 18.37227 0.071589 0.382624 7.646101
2004-05-07 07:29:11 51°14.291 2°54.03 18.37227 0.071589 0.382624 7.646101
2004-05-07 07:29:16 51°14.28 2°54.003 18.36995 0.071589 0.382636 7.612392
2004-05-07 07:29:21 51°14.27 2°53.977 18.372808 0.071485 0.382062 7.646101
2004-05-07 07:29:25 51°14.262 2°53.956 18.366554 0.071589 0.382636 7.646101
2004-05-07 07:29:30 51°14.251 2°53.929 18.372642 0.071485 0.382062 7.646101
2004-05-07 07:29:36 51°14.239 2°53.897 18.363986 0.071589 0.382636 7.646101
2004-05-07 07:29:41 51°14.231 2°53.868 18.363986 0.071589 0.382636 7.646101
2004-05-07 07:29:46 51°14.223 2°53.84 18.372642 0.071589 0.382636 7.646101
2004-05-07 07:29:50 51°14.217 2°53.816 18.381215 0.071589 0.382648 7.679811
2004-05-07 07:29:56 51°14.208 2°53.782 18.390408 0.071589 0.382672 7.646101
2004-05-07 07:30:01 51°14.199 2°53.754 18.402829 0.071589 0.38269 7.679811
2004-05-07 07:30:06 51°14.189 2°53.727 18.412599 0.071485 0.38214 7.646101
2004-05-07 07:30:10 51°14.18 2°53.706 18.412599 0.071485 0.38214 7.646101
2004-05-07 07:30:16 51°14.166 2°53.676 18.400759 0.071485 0.382146 7.646101
2004-05-07 07:30:21 51°14.154 2°53.651 18.397944 0.071485 0.382134 7.646101
2004-05-07 07:30:26 51°14.141 2°53.626 18.403326 0.071485 0.382116 7.612392
2004-05-07 07:30:31 51°14.129 2°53.602 18.404609 0.071485 0.382098 7.612392
2004-05-07 07:30:36 51°14.117 2°53.577 18.405354 0.071485 0.382092 7.646101
2004-05-07 07:30:41 51°14.105 2°53.553 18.405354 0.071485 0.382092 7.646101
2004-05-07 07:30:46 51°14.093 2°53.527 18.411688 0.071589 0.382672 7.646101
2004-05-07 07:30:50 51°14.084 2°53.507 18.412433 0.071485 0.382116 7.679811
2004-05-07 07:30:56 51°14.07 2°53.476 18.415372 0.071485 0.382134 7.679811
2004-05-07 07:31:01 51°14.059 2°53.45 18.418145 0.071485 0.382164 7.646101
2004-05-07 07:31:06 51°14.048 2°53.424 18.422367 0.071485 0.3822 7.646101
2004-05-07 07:31:11 51°14.036 2°53.398 18.422367 0.071485 0.3822 7.646101
2004-05-07 07:31:16 51°14.024 2°53.373 18.423319 0.071485 0.382229 7.646101
2004-05-07 07:31:21 51°14.012 2°53.348 18.425968 0.071485 0.382235 7.646101
2004-05-07 07:31:26 51°14 2°53.323 18.433044 0.071485 0.382247 7.646101
2004-05-07 07:31:31 51°13.987 2°53.298 18.429403 0.071485 0.382247 7.646101
2004-05-07 07:31:36 51°13.975 2°53.273 18.429775 0.071485 0.382247 7.679811
2004-05-07 07:31:41 51°13.963 2°53.248 18.429775 0.071485 0.382247 7.679811
2004-05-07 07:31:46 51°13.951 2°53.222 18.431596 0.071485 0.382241 7.679811
2004-05-07 07:31:51 51°13.94 2°53.195 18.433541 0.071485 0.382229 7.646101
2004-05-07 07:31:56 51°13.929 2°53.168 18.438796 0.071485 0.382235 7.646101
2004-05-07 07:32:01 51°13.919 2°53.141 18.441155 0.071485 0.382241 7.646101
2004-05-07 07:32:06 51°13.908 2°53.114 18.451912 0.071485 0.382253 7.646101
2004-05-07 07:32:11 51°13.897 2°53.088 18.451912 0.071485 0.382253 7.646101
2004-05-07 07:32:16 51°13.884 2°53.062 18.450215 0.071485 0.382265 7.646101
2004-05-07 07:32:21 51°13.872 2°53.038 18.453856 0.071485 0.382289 7.646101
2004-05-07 07:32:25 51°13.861 2°53.018 18.450464 0.071485 0.382313 7.679811
2004-05-07 07:32:31 51°13.845 2°52.99 18.449926 0.071485 0.382325 7.679811
2004-05-07 07:32:35 51°13.834 2°52.971 18.452119 0.071485 0.382337 7.612392
2004-05-07 07:32:41 51°13.818 2°52.942 18.452119 0.071485 0.382337 7.612392
2004-05-07 07:32:46 51°13.806 2°52.916 18.455966 0.071485 0.382331 7.646101
2004-05-07 07:32:51 51°13.794 2°52.891 18.58351 0.071485 0.382337 7.71352
2004-05-07 07:32:56 51°13.782 2°52.864 19.779274 0.071485 0.382325 7.74723
2004-05-07 07:33:01 51°13.77 2°52.838 20.064462 0.071485 0.382337 7.71352
2004-05-07 07:33:06 51°13.759 2°52.811 19.71389 0.071485 0.382343 7.679811
2004-05-07 07:33:12 51°13.746 2°52.779 19.71389 0.071485 0.382343 7.679811
2004-05-07 07:33:16 51°13.737 2°52.757 19.735908 0.071485 0.382343 7.679811
2004-05-07 07:33:21 51°13.728 2°52.729 19.68967 0.071485 0.382361 7.679811
2004-05-07 07:33:26 51°13.718 2°52.701 19.515458 0.071485 0.382373 7.646101
2004-05-07 07:33:31 51°13.708 2°52.673 19.547761 0.071485 0.382385 7.646101
2004-05-07 07:33:36 51°13.697 2°52.645 19.495694 0.071485 0.382403 7.646101
2004-05-07 07:33:41 51°13.687 2°52.616 19.495694 0.071485 0.382403 7.646101
2004-05-07 07:33:46 51°13.677 2°52.589 19.451092 0.071485 0.382421 7.646101
2004-05-07 07:33:51 51°13.666 2°52.561 19.44477 0.071485 0.382433 7.646101
2004-05-07 07:33:56 51°13.655 2°52.533 19.464304 0.071485 0.382451 7.612392
2004-05-07 07:34:01 51°13.644 2°52.506 19.427108 0.071485 0.382463 7.646101
2004-05-07 07:34:06 51°13.633 2°52.48 19.396218 0.071485 0.382475 7.578683
2004-05-07 07:34:10 51°13.623 2°52.459 19.396218 0.071485 0.382475 7.578683
2004-05-07 07:34:16 51°13.609 2°52.427 19.449134 0.071485 0.382481 7.612392
2004-05-07 07:34:21 51°13.597 2°52.401 19.421845 0.071485 0.382486 7.646101
2004-05-07 07:34:26 51°13.585 2°52.375 19.490599 0.071485 0.382492 7.612392
2004-05-07 07:34:31 51°13.573 2°52.349 19.537742 0.071485 0.382504 7.679811
2004-05-07 07:34:36 51°13.562 2°52.322 19.665402 0.071485 0.38251 7.646101
2004-05-07 07:34:41 51°13.551 2°52.294 19.665402 0.071485 0.38251 7.646101
2004-05-07 07:34:46 51°13.541 2°52.266 19.794251 0.071485 0.382516 7.679811
2004-05-07 07:34:50 51°13.534 2°52.243 19.684468 0.071485 0.382534 7.646101
2004-05-07 07:34:56 51°13.523 2°52.208 19.546987 0.071485 0.382552 7.679811
2004-05-07 07:35:01 51°13.515 2°52.179 19.461735 0.071485 0.38257 7.679811
2004-05-07 07:35:06 51°13.506 2°52.15 19.411603 0.071485 0.382588 7.612392
2004-05-07 07:35:10 51°13.499 2°52.127 19.411603 0.071485 0.382588 7.612392
2004-05-07 07:35:15 51°13.49 2°52.098 19.387034 0.071485 0.382594 7.646101
2004-05-07 07:35:21 51°13.479 2°52.063 19.408584 0.071485 0.3826 7.646101
2004-05-07 07:35:26 51°13.469 2°52.035 19.365601 0.071485 0.382606 7.646101
2004-05-07 07:35:30 51°13.461 2°52.013 19.395279 0.071485 0.382618 7.646101
2004-05-07 07:35:36 51°13.448 2°51.98 19.39181 0.071485 0.382636 7.679811
2004-05-07 07:35:41 51°13.437 2°51.953 19.39181 0.071485 0.382636 7.679811
2004-05-07 07:35:46 51°13.426 2°51.925 19.384626 0.071485 0.382642 7.646101
2004-05-07 07:35:51 51°13.415 2°51.898 19.547232 0.071485 0.382648 7.646101
2004-05-07 07:35:56 51°13.405 2°51.871 19.61806 0.071485 0.382666 7.679811
2004-05-07 07:36:01 51°13.394 2°51.843 19.644623 0.071381 0.382103 7.646101
2004-05-07 07:36:06 51°13.384 2°51.815 19.713037 0.071485 0.382684 7.646101
2004-05-07 07:36:11 51°13.375 2°51.786 19.713037 0.071485 0.382684 7.646101
2004-05-07 07:36:16 51°13.365 2°51.758 19.609353 0.071485 0.382696 7.679811
2004-05-07 07:36:21 51°13.356 2°51.729 19.545562 0.071485 0.382708 7.646101
2004-05-07 07:36:26 51°13.347 2°51.7 19.459493 0.071485 0.38272 7.679811
2004-05-07 07:36:31 51°13.338 2°51.671 19.551915 0.071381 0.382163 7.646101
2004-05-07 07:36:36 51°13.329 2°51.643 19.531265 0.071381 0.382169 7.646101
2004-05-07 07:36:41 51°13.32 2°51.614 19.531265 0.071381 0.382169 7.646101
2004-05-07 07:36:46 51°13.31 2°51.585 19.422498 0.071381 0.382187 7.679811
2004-05-07 07:36:50 51°13.302 2°51.563 19.438979 0.071381 0.382193 7.646101
2004-05-07 07:36:56 51°13.29 2°51.529 19.460675 0.071381 0.382205 7.646101
2004-05-07 07:37:01 51°13.28 2°51.501 19.458636 0.071381 0.382211 7.646101
2004-05-07 07:37:06 51°13.269 2°51.473 19.474783 0.071381 0.382217 7.646101
2004-05-07 07:37:10 51°13.261 2°51.451 19.474783 0.071381 0.382217 7.646101
2004-05-07 07:37:16 51°13.248 2°51.417 19.516965 0.071381 0.382223 7.646101
2004-05-07 07:37:21 51°13.238 2°51.39 19.564864 0.071381 0.382235 7.646101
2004-05-07 07:37:26 51°13.228 2°51.361 19.708649 0.071381 0.382241 7.679811
2004-05-07 07:37:30 51°13.22 2°51.338 19.675444 0.071381 0.382247 7.646101
2004-05-07 07:37:36 51°13.209 2°51.303 19.523851 0.071381 0.382271 7.646101
2004-05-07 07:37:41 51°13.2 2°51.274 19.523851 0.071381 0.382271 7.646101
2004-05-07 07:37:46 51°13.191 2°51.245 19.616392 0.071381 0.382289 7.646101
2004-05-07 07:37:50 51°13.184 2°51.221 19.667882 0.071381 0.382307 7.679811
2004-05-07 07:37:56 51°13.174 2°51.186 19.51122 0.071381 0.382313 7.679811
2004-05-07 07:38:01 51°13.164 2°51.157 19.44216 0.071381 0.382331 7.679811
2004-05-07 07:38:06 51°13.155 2°51.128 19.47042 0.071381 0.382343 7.679811
2004-05-07 07:38:10 51°13.147 2°51.105 19.47042 0.071381 0.382343 7.679811
2004-05-07 07:38:16 51°13.134 2°51.072 19.423558 0.071381 0.382349 7.612392
2004-05-07 07:38:21 51°13.124 2°51.044 19.46989 0.071381 0.382355 7.679811
2004-05-07 07:38:26 51°13.112 2°51.017 19.466384 0.071381 0.382361 7.679811
2004-05-07 07:38:30 51°13.103 2°50.996 19.422294 0.071381 0.382373 7.646101
2004-05-07 07:38:36 51°13.088 2°50.964 19.477677 0.071381 0.382379 7.679811
2004-05-07 07:38:41 51°13.076 2°50.938 19.477677 0.071381 0.382379 7.679811
2004-05-07 07:38:46 51°13.064 2°50.911 19.686744 0.071381 0.382385 7.71352
2004-05-07 07:38:50 51°13.054 2°50.89 19.687882 0.071381 0.382397 7.679811
2004-05-07 07:38:56 51°13.041 2°50.858 19.759665 0.071381 0.382403 7.679811
2004-05-07 07:39:01 51°13.029 2°50.83 19.672964 0.071381 0.382415 7.646101
2004-05-07 07:39:06 51°13.018 2°50.803 19.616717 0.071381 0.382433 7.679811
2004-05-07 07:39:11 51°13.008 2°50.775 19.616717 0.071381 0.382433 7.679811
2004-05-07 07:39:16 51°12.997 2°50.747 19.633885 0.071381 0.382445 7.646101
2004-05-07 07:39:21 51°12.987 2°50.72 19.492515 0.071381 0.382463 7.679811
2004-05-07 07:39:25 51°12.978 2°50.698 19.474823 0.071381 0.382475 7.646101
2004-05-07 07:39:31 51°12.965 2°50.665 19.467362 0.071381 0.382493 7.646101
2004-05-07 07:39:35 51°12.955 2°50.643 19.465609 0.071381 0.382504 7.646101
2004-05-07 07:39:41 51°12.942 2°50.611 19.465609 0.071381 0.382504 7.646101
2004-05-07 07:39:46 51°12.93 2°50.585 19.457046 0.071381 0.38251 7.679811
2004-05-07 07:39:50 51°12.92 2°50.564 19.526784 0.071381 0.382516 7.646101
2004-05-07 07:39:56 51°12.905 2°50.533 19.58005 0.071381 0.382516 7.646101
2004-05-07 07:40:01 51°12.894 2°50.506 19.629654 0.071381 0.382522 7.71352
2004-05-07 07:40:06 51°12.883 2°50.479 19.671216 0.071381 0.382522 7.646101
2004-05-07 07:40:11 51°12.872 2°50.452 19.671216 0.071381 0.382522 7.646101
2004-05-07 07:40:16 51°12.861 2°50.424 19.781344 0.071381 0.382546 7.646101
2004-05-07 07:40:21 51°12.851 2°50.396 19.716693 0.071381 0.382558 7.646101
2004-05-07 07:40:26 51°12.84 2°50.369 19.577526 0.071381 0.382576 7.679811
2004-05-07 07:40:31 51°12.83 2°50.341 19.534524 0.071381 0.382594 7.679811
2004-05-07 07:40:36 51°12.819 2°50.313 19.474497 0.071277 0.382043 7.646101
2004-05-07 07:40:41 51°12.808 2°50.286 19.474497 0.071277 0.382043 7.646101
2004-05-07 07:40:46 51°12.797 2°50.26 19.513624 0.071381 0.38263 7.679811
2004-05-07 07:40:51 51°12.785 2°50.233 19.51831 0.071381 0.382648 7.679811
2004-05-07 07:40:56 51°12.773 2°50.207 19.540104 0.071277 0.382085 7.679811
2004-05-07 07:41:01 51°12.761 2°50.181 19.55501 0.071277 0.382097 7.646101
2004-05-07 07:41:06 51°12.749 2°50.155 19.655928 0.071381 0.382672 7.646101
2004-05-07 07:41:10 51°12.74 2°50.134 19.655928 0.071381 0.382672 7.646101
2004-05-07 07:41:16 51°12.726 2°50.103 19.593522 0.071277 0.382103 7.679811
2004-05-07 07:41:21 51°12.714 2°50.076 19.654871 0.071277 0.382103 7.646101
2004-05-07 07:41:26 51°12.703 2°50.05 19.742894 0.071277 0.382109 7.646101
2004-05-07 07:41:30 51°12.694 2°50.028 19.700725 0.071277 0.382121 7.646101
2004-05-07 07:41:36 51°12.682 2°49.995 19.664955 0.071277 0.382133 7.679811
2004-05-07 07:41:41 51°12.671 2°49.968 19.664955 0.071277 0.382133 7.679811
2004-05-07 07:41:46 51°12.661 2°49.94 19.658815 0.071277 0.382163 7.646101
2004-05-07 07:41:51 51°12.651 2°49.912 19.70556 0.071277 0.382175 7.646101
2004-05-07 07:41:56 51°12.641 2°49.885 19.536031 0.071277 0.382199 7.679811
2004-05-07 07:42:01 51°12.63 2°49.858 19.490925 0.071277 0.382211 7.646101
2004-05-07 07:42:06 51°12.619 2°49.831 19.552078 0.071277 0.382229 7.646101
2004-05-07 07:42:10 51°12.61 2°49.81 19.552078 0.071277 0.382229 7.646101
2004-05-07 07:42:16 51°12.595 2°49.779 19.518147 0.071277 0.382241 7.646101
2004-05-07 07:42:21 51°12.583 2°49.753 19.549797 0.071277 0.382247 7.646101
2004-05-07 07:42:26 51°12.571 2°49.728 19.53929 0.071277 0.382253 7.646101
2004-05-07 07:42:30 51°12.561 2°49.708 19.592749 0.071277 0.382253 7.679811
2004-05-07 07:42:36 51°12.547 2°49.677 19.666052 0.071277 0.382259 7.679811
2004-05-07 07:42:41 51°12.535 2°49.652 19.666052 0.071277 0.382259 7.679811
2004-05-07 07:42:46 51°12.523 2°49.626 19.704788 0.071277 0.382271 7.679811
2004-05-07 07:42:50 51°12.515 2°49.604 19.913991 0.071277 0.382271 7.679811
2004-05-07 07:42:56 51°12.503 2°49.571 19.86333 0.071277 0.382289 7.679811
2004-05-07 07:43:01 51°12.494 2°49.542 19.803909 0.071277 0.382301 7.646101
2004-05-07 07:43:06 51°12.485 2°49.514 19.676053 0.071277 0.382325 7.679811
2004-05-07 07:43:10 51°12.478 2°49.491 19.676053 0.071277 0.382325 7.679811
2004-05-07 07:43:16 51°12.468 2°49.457 19.706048 0.071277 0.382349 7.679811
2004-05-07 07:43:21 51°12.46 2°49.428 19.613503 0.071277 0.382373 7.646101
2004-05-07 07:43:26 51°12.451 2°49.4 19.552648 0.071277 0.382385 7.679811
2004-05-07 07:43:30 51°12.444 2°49.377 19.604144 0.071277 0.382391 7.646101
2004-05-07 07:43:36 51°12.432 2°49.343 19.551223 0.071277 0.382409 7.679811
2004-05-07 07:43:41 51°12.422 2°49.315 19.551223 0.071277 0.382409 7.679811
2004-05-07 07:43:46 51°12.412 2°49.288 19.607603 0.071277 0.382403 7.679811
2004-05-07 07:43:50 51°12.403 2°49.266 19.560344 0.071277 0.382409 7.646101
2004-05-07 07:43:56 51°12.39 2°49.234 19.584649 0.071277 0.382409 7.679811
2004-05-07 07:44:01 51°12.379 2°49.208 19.604429 0.071277 0.382421 7.646101
2004-05-07 07:44:06 51°12.368 2°49.181 19.660604 0.071277 0.382427 7.71352
2004-05-07 07:44:10 51°12.359 2°49.16 19.660604 0.071277 0.382427 7.71352
2004-05-07 07:44:16 51°12.346 2°49.128 19.669955 0.071277 0.382445 7.71352
2004-05-07 07:44:21 51°12.336 2°49.1 19.804639 0.071277 0.382463 7.679811
2004-05-07 07:44:26 51°12.326 2°49.072 19.874154 0.071277 0.382475 7.679811
2004-05-07 07:44:30 51°12.318 2°49.05 19.734933 0.071277 0.382493 7.679811
2004-05-07 07:44:36 51°12.308 2°49.016 19.762385 0.071277 0.382511 7.646101
2004-05-07 07:44:41 51°12.3 2°48.987 19.762385 0.071277 0.382511 7.646101
2004-05-07 07:44:46 51°12.291 2°48.958 19.674996 0.071277 0.382523 7.679811
2004-05-07 07:44:50 51°12.284 2°48.935 19.615863 0.071277 0.382535 7.679811
2004-05-07 07:44:56 51°12.274 2°48.901 19.6039 0.071277 0.382547 7.646101
2004-05-07 07:45:01 51°12.264 2°48.873 19.569058 0.071277 0.382559 7.679811
2004-05-07 07:45:06 51°12.255 2°48.845 19.560874 0.071277 0.382565 7.679811
2004-05-07 07:45:11 51°12.244 2°48.818 19.560874 0.071277 0.382565 7.679811
2004-05-07 07:45:16 51°12.234 2°48.79 19.624488 0.071277 0.382577 7.679811
2004-05-07 07:45:21 51°12.223 2°48.764 19.604795 0.071277 0.382583 7.679811
2004-05-07 07:45:26 51°12.212 2°48.737 19.680688 0.071277 0.382589 7.679811
2004-05-07 07:45:30 51°12.203 2°48.716 19.687029 0.071277 0.382595 7.646101
2004-05-07 07:45:36 51°12.19 2°48.684 19.715231 0.071277 0.382601 7.679811
2004-05-07 07:45:41 51°12.179 2°48.657 19.715231 0.071277 0.382601 7.679811
2004-05-07 07:45:46 51°12.169 2°48.629 19.769368 0.071277 0.382619 7.679811
2004-05-07 07:45:51 51°12.159 2°48.602 19.788122 0.071277 0.382625 7.679811
2004-05-07 07:45:56 51°12.15 2°48.573 19.834417 0.071277 0.382643 7.679811
2004-05-07 07:46:01 51°12.141 2°48.545 19.8061 0.071277 0.382661 7.679811
2004-05-07 07:46:06 51°12.133 2°48.516 19.730181 0.071277 0.382679 7.679811
2004-05-07 07:46:11 51°12.125 2°48.488 19.730181 0.071277 0.382679 7.679811
2004-05-07 07:46:16 51°12.116 2°48.459 19.655481 0.071277 0.382697 7.679811
2004-05-07 07:46:21 51°12.107 2°48.43 19.66902 0.071277 0.382709 7.679811
2004-05-07 07:46:26 51°12.098 2°48.402 19.636081 0.071277 0.382727 7.679811
2004-05-07 07:46:30 51°12.091 2°48.379 19.606301 0.071173 0.382151 7.679811
2004-05-07 07:46:36 51°12.079 2°48.346 19.572355 0.071173 0.382169 7.679811
2004-05-07 07:46:41 51°12.069 2°48.319 19.572355 0.071173 0.382169 7.679811
2004-05-07 07:46:46 51°12.058 2°48.292 19.603371 0.071173 0.382175 7.612392
2004-05-07 07:46:50 51°12.05 2°48.271 19.632298 0.071173 0.382181 7.646101
2004-05-07 07:46:56 51°12.036 2°48.239 19.657595 0.071173 0.382181 7.679811
2004-05-07 07:47:01 51°12.025 2°48.213 19.687923 0.071173 0.382193 7.679811
2004-05-07 07:47:06 51°12.014 2°48.186 19.768962 0.071173 0.382205 7.679811
2004-05-07 07:47:11 51°12.003 2°48.16 19.768962 0.071173 0.382205 7.679811
2004-05-07 07:47:16 51°11.993 2°48.133 19.76336 0.071173 0.382217 7.679811
2004-05-07 07:47:21 51°11.983 2°48.106 19.784266 0.071173 0.382235 7.646101
2004-05-07 07:47:25 51°11.975 2°48.084 19.781466 0.071173 0.382247 7.679811
2004-05-07 07:47:30 51°11.966 2°48.056 19.749513 0.071173 0.382259 7.679811
2004-05-07 07:47:36 51°11.955 2°48.022 19.749798 0.071173 0.382277 7.679811
2004-05-07 07:47:41 51°11.947 2°47.994 19.749798 0.071173 0.382277 7.679811
2004-05-07 07:47:46 51°11.938 2°47.966 19.746021 0.071173 0.382289 7.71352
2004-05-07 07:47:51 51°11.929 2°47.937 19.674387 0.071173 0.382307 7.646101
2004-05-07 07:47:56 51°11.921 2°47.909 19.653935 0.071173 0.382313 7.679811
2004-05-07 07:48:01 51°11.912 2°47.881 19.63661 0.071173 0.382325 7.646101
2004-05-07 07:48:06 51°11.903 2°47.852 19.637586 0.071173 0.382331 7.679811
2004-05-07 07:48:11 51°11.894 2°47.825 19.637586 0.071173 0.382331 7.679811
2004-05-07 07:48:14 51°11.888 2°47.808 19.618345 0.071173 0.382343 7.679811
2004-05-07 07:48:21 51°11.874 2°47.77 19.585708 0.071173 0.382355 7.646101
2004-05-07 07:48:26 51°11.864 2°47.745 19.650763 0.071173 0.382373 7.679811
2004-05-07 07:48:31 51°11.853 2°47.722 19.571948 0.071173 0.382391 7.679811
2004-05-07 07:48:36 51°11.842 2°47.7 19.541082 0.071173 0.382421 7.71352
2004-05-07 07:48:41 51°11.831 2°47.68 19.541082 0.071173 0.382421 7.71352
2004-05-07 07:48:46 51°11.82 2°47.66 19.615578 0.071173 0.382439 7.646101
2004-05-07 07:48:51 51°11.812 2°47.64 19.950607 0.071173 0.382433 7.679811
2004-05-07 07:48:56 51°11.805 2°47.62 19.928048 0.071173 0.382415 7.646101
2004-05-07 07:49:01 51°11.799 2°47.601 19.694954 0.071173 0.382421 7.679811
2004-05-07 07:49:06 51°11.794 2°47.583 19.723031 0.071173 0.382433 7.646101
2004-05-07 07:49:12 51°11.789 2°47.562 19.723031 0.071173 0.382433 7.646101
2004-05-07 07:49:16 51°11.786 2°47.55 19.636447 0.071173 0.382457 7.646101
2004-05-07 07:49:21 51°11.784 2°47.535 19.670809 0.071173 0.382469 7.679811
2004-05-07 07:49:26 51°11.781 2°47.522 19.632909 0.071173 0.382487 7.679811
2004-05-07 07:49:30 51°11.779 2°47.513 19.632054 0.071173 0.382518 7.646101
2004-05-07 07:49:36 51°11.777 2°47.5 19.590185 0.071173 0.382542 7.646101
2004-05-07 07:49:41 51°11.775 2°47.492 19.590185 0.071173 0.382542 7.646101
2004-05-07 07:49:46 51°11.772 2°47.485 19.616717 0.071173 0.382572 7.646101
2004-05-07 07:49:50 51°11.771 2°47.481 19.620094 0.071173 0.382584 7.646101
2004-05-07 07:49:56 51°11.769 2°47.476 19.611713 0.071173 0.382608 7.646101
2004-05-07 07:50:01 51°11.768 2°47.473 19.632583 0.071173 0.382608 7.679811
2004-05-07 07:50:06 51°11.767 2°47.472 19.659628 0.071173 0.38262 7.679811
2004-05-07 07:50:10 51°11.766 2°47.471 19.659628 0.071173 0.38262 7.679811
2004-05-07 07:50:16 51°11.766 2°47.47 19.656294 0.071173 0.382626 7.646101
2004-05-07 07:50:21 51°11.767 2°47.471 19.672517 0.071173 0.382638 7.646101
2004-05-07 07:50:26 51°11.767 2°47.471 19.650479 0.071173 0.38265 7.646101
2004-05-07 07:50:32 51°11.767 2°47.471 19.660685 0.071173 0.382662 7.679811
2004-05-07 07:50:37 51°11.768 2°47.471 19.636773 0.071173 0.382674 7.646101
2004-05-07 07:50:42 51°11.768 2°47.471 19.636773 0.071173 0.382674 7.646101
2004-05-07 07:50:46 51°11.768 2°47.471 19.635268 0.071069 0.382115 7.646101
2004-05-07 07:50:52 51°11.768 2°47.47 19.650641 0.071069 0.382127 7.646101
2004-05-07 07:50:57 51°11.769 2°47.469 19.642223 0.071069 0.382127 7.679811
2004-05-07 07:51:02 51°11.769 2°47.469 19.642508 0.071069 0.382139 7.679811
2004-05-07 07:51:07 51°11.769 2°47.468 19.644094 0.071069 0.382145 7.646101
2004-05-07 07:51:12 51°11.769 2°47.467 19.644094 0.071069 0.382145 7.646101
2004-05-07 07:51:17 51°11.769 2°47.466 19.684224 0.071069 0.382157 7.612392
2004-05-07 07:51:22 51°11.77 2°47.465 19.646249 0.071069 0.382163 7.646101
2004-05-07 07:51:26 51°11.77 2°47.464 19.668045 0.071069 0.382175 7.646101
2004-05-07 07:51:32 51°11.77 2°47.463 19.656985 0.071069 0.382181 7.612392
2004-05-07 07:51:37 51°11.77 2°47.463 19.657636 0.071069 0.382193 7.646101
2004-05-07 07:51:41 51°11.77 2°47.462 19.657636 0.071069 0.382193 7.646101
2004-05-07 07:51:46 51°11.77 2°47.461 19.669467 0.071069 0.382205 7.646101
2004-05-07 07:51:51 51°11.769 2°47.461 19.657432 0.071069 0.382229 7.646101
2004-05-07 07:51:56 51°11.769 2°47.46 19.662881 0.071069 0.382235 7.646101
2004-05-07 07:52:01 51°11.769 2°47.459 19.653813 0.071069 0.382253 7.612392
2004-05-07 07:52:06 51°11.769 2°47.459 19.658408 0.071069 0.382259 7.646101
2004-05-07 07:52:12 51°11.769 2°47.458 19.658408 0.071069 0.382259 7.646101
2004-05-07 07:52:16 51°11.769 2°47.457 19.683533 0.071069 0.382271 7.646101
2004-05-07 07:52:21 51°11.769 2°47.456 19.686256 0.071069 0.382277 7.679811
2004-05-07 07:52:25 51°11.769 2°47.456 19.691499 0.071069 0.382284 7.679811
2004-05-07 07:52:30 51°11.768 2°47.455 19.679224 0.071069 0.38229 7.679811
2004-05-07 07:52:37 51°11.768 2°47.454 19.678696 0.071069 0.382302 7.612392
2004-05-07 07:52:41 51°11.768 2°47.453 19.678696 0.071069 0.382302 7.612392
2004-05-07 07:52:46 51°11.768 2°47.452 19.674956 0.071069 0.382308 7.646101
2004-05-07 07:52:50 51°11.768 2°47.452 19.672882 0.071069 0.382314 7.646101
2004-05-07 07:52:56 51°11.767 2°47.451 19.684427 0.071069 0.382326 7.612392
2004-05-07 07:53:01 51°11.767 2°47.45 19.685484 0.071069 0.382338 7.646101
2004-05-07 07:53:05 51°11.767 2°47.449 19.683614 0.071069 0.38235 7.646101
2004-05-07 07:53:10 51°11.767 2°47.448 19.683614 0.071069 0.38235 7.646101
2004-05-07 07:53:16 51°11.767 2°47.446 19.67524 0.071069 0.382362 7.646101
2004-05-07 07:53:21 51°11.766 2°47.446 19.670931 0.071069 0.382374 7.646101
2004-05-07 07:53:25 51°11.766 2°47.445 19.708242 0.071069 0.38238 7.646101
2004-05-07 07:53:31 51°11.766 2°47.445 19.664345 0.071069 0.382392 7.646101
2004-05-07 07:53:36 51°11.765 2°47.444 19.700562 0.071069 0.382398 7.646101
2004-05-07 07:53:41 51°11.765 2°47.443 19.700562 0.071069 0.382398 7.646101
2004-05-07 07:53:46 51°11.765 2°47.442 19.684712 0.071069 0.382398 7.679811
2004-05-07 07:53:51 51°11.764 2°47.441 19.686785 0.071069 0.38241 7.679811
2004-05-07 07:53:56 51°11.764 2°47.44 19.733065 0.071069 0.382422 7.646101
2004-05-07 07:54:01 51°11.763 2°47.439 19.706373 0.071069 0.382428 7.646101
2004-05-07 07:54:06 51°11.763 2°47.438 19.713646 0.071069 0.382428 7.612392
2004-05-07 07:54:10 51°11.763 2°47.437 19.713646 0.071069 0.382428 7.612392
2004-05-07 07:54:16 51°11.762 2°47.436 19.699953 0.071069 0.38244 7.612392
2004-05-07 07:54:21 51°11.762 2°47.435 19.702594 0.071069 0.382458 7.612392
2004-05-07 07:54:25 51°11.761 2°47.434 19.692881 0.071069 0.382458 7.646101
2004-05-07 07:54:31 51°11.761 2°47.432 19.693084 0.071069 0.38247 7.646101
2004-05-07 07:54:34 51°11.761 2°47.431 19.687029 0.070965 0.381899 7.646101
2004-05-07 07:54:41 51°11.761 2°47.429 19.687029 0.070965 0.381899 7.646101
2004-05-07 07:54:45 51°11.76 2°47.429 19.707551 0.071069 0.382476 7.612392
2004-05-07 07:54:50 51°11.76 2°47.427 19.707023 0.070965 0.381911 7.646101
2004-05-07 07:54:56 51°11.759 2°47.426 19.70743 0.071069 0.382494 7.679811
2004-05-07 07:55:01 51°11.759 2°47.425 19.702878 0.070965 0.381917 7.646101
2004-05-07 07:55:06 51°11.758 2°47.423 19.703082 0.070965 0.381929 7.646101
2004-05-07 07:55:10 51°11.758 2°47.423 19.703082 0.070965 0.381929 7.646101
2004-05-07 07:55:16 51°11.757 2°47.421 19.715109 0.070965 0.381935 7.646101
2004-05-07 07:55:21 51°11.757 2°47.42 19.71129 0.070965 0.381947 7.646101
2004-05-07 07:55:26 51°11.756 2°47.419 19.69727 0.070965 0.381953 7.646101
2004-05-07 07:55:31 51°11.755 2°47.417 19.705438 0.070965 0.381959 7.646101
2004-05-07 07:55:36 51°11.755 2°47.416 19.708242 0.070965 0.381971 7.646101
2004-05-07 07:55:41 51°11.754 2°47.415 19.708242 0.070965 0.381971 7.646101
2004-05-07 07:55:46 51°11.754 2°47.414 19.70105 0.070965 0.381971 7.646101
2004-05-07 07:55:51 51°11.753 2°47.412 19.694913 0.070965 0.381983 7.612392
2004-05-07 07:55:56 51°11.752 2°47.411 19.721894 0.070965 0.381989 7.612392
2004-05-07 07:56:01 51°11.752 2°47.41 19.717872 0.070965 0.382001 7.612392
2004-05-07 07:56:06 51°11.751 2°47.409 19.722056 0.070965 0.381995 7.646101
2004-05-07 07:56:10 51°11.75 2°47.408 19.722056 0.070965 0.381995 7.646101
2004-05-07 07:56:14 51°11.75 2°47.407 19.708405 0.070965 0.382007 7.646101
2004-05-07 07:56:21 51°11.749 2°47.405 19.706698 0.070965 0.382019 7.646101
2004-05-07 07:56:26 51°11.748 2°47.404 19.742691 0.070965 0.382019 7.646101
2004-05-07 07:56:30 51°11.748 2°47.403 19.730912 0.070965 0.382025 7.612392
2004-05-07 07:56:37 51°11.746 2°47.401 19.729125 0.070965 0.382037 7.646101
2004-05-07 07:56:41 51°11.746 2°47.4 19.729125 0.070965 0.382037 7.646101
2004-05-07 07:56:46 51°11.745 2°47.399 19.724859 0.070965 0.382043 7.646101
2004-05-07 07:56:50 51°11.745 2°47.398 19.728271 0.070965 0.382049 7.646101
2004-05-07 07:56:56 51°11.744 2°47.396 19.708161 0.070965 0.382049 7.646101
2004-05-07 07:57:01 51°11.743 2°47.395 19.722422 0.070965 0.382055 7.646101
2004-05-07 07:57:05 51°11.742 2°47.394 19.720472 0.070965 0.382067 7.646101
2004-05-07 07:57:10 51°11.742 2°47.392 19.720472 0.070965 0.382067 7.646101
2004-05-07 07:57:16 51°11.741 2°47.391 19.70938 0.070965 0.382073 7.646101
2004-05-07 07:57:21 51°11.74 2°47.389 19.72819 0.070965 0.382079 7.646101
2004-05-07 07:57:26 51°11.739 2°47.388 19.732821 0.070965 0.382091 7.679811
2004-05-07 07:57:31 51°11.738 2°47.387 19.727662 0.070965 0.382097 7.646101
2004-05-07 07:57:36 51°11.737 2°47.385 19.744396 0.070965 0.382103 7.612392
2004-05-07 07:57:41 51°11.736 2°47.384 19.744396 0.070965 0.382103 7.612392
2004-05-07 07:57:46 51°11.736 2°47.383 19.7223 0.070965 0.382103 7.612392
2004-05-07 07:57:51 51°11.735 2°47.382 19.737289 0.070965 0.382109 7.612392
2004-05-07 07:57:56 51°11.734 2°47.381 19.739279 0.070965 0.382115 7.612392
2004-05-07 07:58:01 51°11.733 2°47.379 19.736233 0.070965 0.382128 7.646101
2004-05-07 07:58:06 51°11.732 2°47.378 19.741147 0.070965 0.382128 7.646101
2004-05-07 07:58:11 51°11.731 2°47.377 19.741147 0.070965 0.382128 7.646101
2004-05-07 07:58:16 51°11.73 2°47.376 19.740254 0.070965 0.38214 7.646101
2004-05-07 07:58:21 51°11.729 2°47.375 19.278247 0.070965 0.382146 7.612392
2004-05-07 07:58:26 51°11.727 2°47.373 19.329128 0.070965 0.382146 7.646101
2004-05-07 07:58:30 51°11.727 2°47.372 19.354248 0.070965 0.382158 7.679811
2004-05-07 07:58:36 51°11.726 2°47.371 19.374624 0.070965 0.382164 7.646101
2004-05-07 07:58:41 51°11.724 2°47.37 19.374624 0.070965 0.382164 7.646101
2004-05-07 07:58:46 51°11.723 2°47.368 19.393402 0.070965 0.38217 7.679811
2004-05-07 07:58:50 51°11.722 2°47.367 19.433717 0.070965 0.382176 7.646101
2004-05-07 07:58:56 51°11.721 2°47.366 19.448971 0.070965 0.382188 7.612392
2004-05-07 07:59:01 51°11.72 2°47.365 19.475639 0.070965 0.382182 7.679811
2004-05-07 07:59:06 51°11.719 2°47.364 19.50739 0.070965 0.382194 7.646101
2004-05-07 07:59:10 51°11.718 2°47.363 19.50739 0.070965 0.382194 7.646101
2004-05-07 07:59:16 51°11.717 2°47.361 19.490599 0.070965 0.3822 7.646101
2004-05-07 07:59:21 51°11.716 2°47.36 19.490966 0.070965 0.382212 7.612392
2004-05-07 07:59:26 51°11.715 2°47.359 19.504334 0.070965 0.382212 7.646101
2004-05-07 07:59:31 51°11.714 2°47.358 19.520877 0.070965 0.382212 7.679811
2004-05-07 07:59:36 51°11.712 2°47.357 19.543811 0.070965 0.38223 7.646101
2004-05-07 07:59:41 51°11.711 2°47.356 19.543811 0.070965 0.38223 7.646101
2004-05-07 07:59:46 51°11.71 2°47.355 19.530654 0.070965 0.382236 7.679811
2004-05-07 07:59:50 51°11.709 2°47.354 19.528291 0.070965 0.382236 7.646101
2004-05-07 07:59:56 51°11.708 2°47.352 19.524503 0.070965 0.382242 7.679811
2004-05-07 08:00:01 51°11.706 2°47.351 19.525562 0.070965 0.382254 7.612392
2004-05-07 08:00:06 51°11.705 2°47.35 19.547354 0.070965 0.38226 7.612392
2004-05-07 08:00:10 51°11.704 2°47.349 19.547354 0.070965 0.38226 7.612392
2004-05-07 08:00:16 51°11.703 2°47.348 19.53322 0.070965 0.382266 7.646101
2004-05-07 08:00:21 51°11.701 2°47.347 19.538516 0.070965 0.382272 7.646101
2004-05-07 08:00:26 51°11.7 2°47.346 19.541163 0.070965 0.382278 7.646101
2004-05-07 08:00:31 51°11.698 2°47.345 19.525277 0.070965 0.382284 7.646101
2004-05-07 08:00:36 51°11.696 2°47.343 19.527477 0.070965 0.382284 7.646101
2004-05-07 08:00:41 51°11.694 2°47.342 19.527477 0.070965 0.382284 7.646101
2004-05-07 08:00:45 51°11.691 2°47.341 19.566411 0.070965 0.38229 7.646101
2004-05-07 08:00:50 51°11.687 2°47.339 19.612811 0.070965 0.38229 7.679811
2004-05-07 08:00:56 51°11.681 2°47.336 19.673208 0.070965 0.382284 7.646101
2004-05-07 08:01:01 51°11.676 2°47.332 19.695279 0.070965 0.382284 7.646101
2004-05-07 08:01:06 51°11.67 2°47.326 19.721447 0.070965 0.38229 7.646101
2004-05-07 08:01:10 51°11.666 2°47.321 19.721447 0.070965 0.38229 7.646101
2004-05-07 08:01:16 51°11.66 2°47.311 19.699749 0.070861 0.381718 7.679811
2004-05-07 08:01:21 51°11.655 2°47.302 19.663735 0.070965 0.382321 7.646101
2004-05-07 08:01:26 51°11.65 2°47.292 19.660401 0.070965 0.382339 7.612392
2004-05-07 08:01:30 51°11.647 2°47.282 19.719375 0.070965 0.382351 7.646101
2004-05-07 08:01:37 51°11.643 2°47.262 19.71515 0.070965 0.382363 7.646101
2004-05-07 08:01:41 51°11.642 2°47.25 19.71515 0.070965 0.382363 7.646101
2004-05-07 08:01:45 51°11.642 2°47.239 19.691946 0.070965 0.382363 7.646101
2004-05-07 08:01:50 51°11.642 2°47.225 19.594703 0.070861 0.381808 7.646101
2004-05-07 08:01:56 51°11.643 2°47.209 19.557209 0.070965 0.382399 7.646101
2004-05-07 08:02:01 51°11.644 2°47.197 19.560222 0.070965 0.382411 7.646101
2004-05-07 08:02:06 51°11.646 2°47.185 19.564457 0.070965 0.382423 7.646101
2004-05-07 08:02:10 51°11.648 2°47.177 19.564457 0.070965 0.382423 7.646101
2004-05-07 08:02:16 51°11.652 2°47.164 19.572478 0.070861 0.381845 7.646101
2004-05-07 08:02:21 51°11.655 2°47.155 19.564457 0.070965 0.382417 7.646101
2004-05-07 08:02:26 51°11.659 2°47.146 19.582248 0.070861 0.381833 7.646101
2004-05-07 08:02:31 51°11.663 2°47.139 19.577444 0.070861 0.381821 7.612392
2004-05-07 08:02:36 51°11.667 2°47.132 19.556883 0.070965 0.382399 7.612392
2004-05-07 08:02:41 51°11.672 2°47.126 19.556883 0.070965 0.382399 7.612392
2004-05-07 08:02:46 51°11.676 2°47.121 19.580579 0.070861 0.381821 7.612392
2004-05-07 08:02:50 51°11.681 2°47.117 19.579602 0.070861 0.381821 7.612392
2004-05-07 08:02:56 51°11.688 2°47.114 19.602679 0.070965 0.382405 7.612392
2004-05-07 08:03:01 51°11.694 2°47.112 19.632909 0.070861 0.381833 7.578683
2004-05-07 08:03:06 51°11.701 2°47.113 19.674874 0.070861 0.381827 7.612392
2004-05-07 08:03:11 51°11.708 2°47.115 19.674874 0.070861 0.381827 7.612392
2004-05-07 08:03:16 51°11.713 2°47.12 19.66963 0.070861 0.381833 7.646101
2004-05-07 08:03:21 51°11.718 2°47.124 19.597592 0.070861 0.381845 7.612392
2004-05-07 08:03:26 51°11.723 2°47.129 19.582003 0.070861 0.381869 7.679811
2004-05-07 08:03:30 51°11.726 2°47.133 19.537009 0.070861 0.381887 7.646101
2004-05-07 08:03:36 51°11.731 2°47.14 19.550164 0.070861 0.381899 7.612392
2004-05-07 08:03:41 51°11.735 2°47.146 19.550164 0.070861 0.381899 7.612392
2004-05-07 08:03:46 51°11.739 2°47.151 19.541693 0.070861 0.381905 7.612392
2004-05-07 08:03:50 51°11.742 2°47.156 19.544177 0.070861 0.381917 7.646101
2004-05-07 08:03:56 51°11.747 2°47.163 19.549879 0.070861 0.381917 7.646101
2004-05-07 08:04:01 51°11.751 2°47.169 19.554643 0.070861 0.381911 7.646101
2004-05-07 08:04:06 51°11.755 2°47.175 19.598365 0.070861 0.381905 7.612392
2004-05-07 08:04:11 51°11.759 2°47.181 19.598365 0.070861 0.381905 7.612392
2004-05-07 08:04:16 51°11.762 2°47.187 19.591447 0.070861 0.381911 7.646101
2004-05-07 08:04:21 51°11.766 2°47.193 19.58933 0.070861 0.381917 7.612392
2004-05-07 08:04:26 51°11.769 2°47.199 19.599017 0.070861 0.381917 7.612392
2004-05-07 08:04:31 51°11.773 2°47.205 19.594336 0.070861 0.381935 7.612392
2004-05-07 08:04:33 51°11.774 2°47.207 19.605731 0.070861 0.381947 7.578683
2004-05-07 08:04:41 51°11.779 2°47.217 19.605731 0.070861 0.381947 7.578683
2004-05-07 08:04:46 51°11.782 2°47.223 19.614439 0.070861 0.381953 7.612392
2004-05-07 08:04:50 51°11.784 2°47.228 19.606464 0.070861 0.381959 7.612392
2004-05-07 08:04:56 51°11.787 2°47.236 19.619321 0.070861 0.381965 7.578683
2004-05-07 08:05:01 51°11.79 2°47.242 19.592301 0.070861 0.381971 7.646101
2004-05-07 08:05:06 51°11.792 2°47.249 19.601092 0.070861 0.381971 7.612392
2004-05-07 08:05:11 51°11.795 2°47.255 19.601092 0.070861 0.381971 7.612392
2004-05-07 08:05:16 51°11.797 2°47.262 19.597592 0.070861 0.381977 7.612392
2004-05-07 08:05:21 51°11.799 2°47.268 19.59861 0.070861 0.381977 7.646101
2004-05-07 08:05:26 51°11.802 2°47.275 19.58929 0.070861 0.381983 7.612392
2004-05-07 08:05:30 51°11.803 2°47.28 19.601703 0.070861 0.381989 7.612392
2004-05-07 08:05:36 51°11.806 2°47.288 19.611469 0.070861 0.382001 7.612392
2004-05-07 08:05:41 51°11.808 2°47.295 19.611469 0.070861 0.382001 7.612392
2004-05-07 08:05:46 51°11.81 2°47.302 19.602923 0.070861 0.382001 7.646101
2004-05-07 08:05:51 51°11.812 2°47.308 19.595395 0.070861 0.382014 7.612392
2004-05-07 08:05:56 51°11.814 2°47.315 19.601214 0.070861 0.38202 7.612392
2004-05-07 08:06:01 51°11.816 2°47.322 19.606789 0.070861 0.38202 7.612392
2004-05-07 08:06:06 51°11.818 2°47.329 19.617816 0.070861 0.38202 7.612392
2004-05-07 08:06:10 51°11.819 2°47.335 19.617816 0.070861 0.38202 7.612392
2004-05-07 08:06:16 51°11.821 2°47.343 19.615171 0.070861 0.382026 7.646101
2004-05-07 08:06:21 51°11.822 2°47.35 19.637586 0.070861 0.382032 7.612392
2004-05-07 08:06:26 51°11.823 2°47.357 19.615456 0.070861 0.382032 7.612392
2004-05-07 08:06:30 51°11.823 2°47.363 19.624325 0.070861 0.382038 7.612392
2004-05-07 08:06:36 51°11.824 2°47.372 19.612893 0.070861 0.382044 7.612392
2004-05-07 08:06:41 51°11.825 2°47.379 19.612893 0.070861 0.382044 7.612392
2004-05-07 08:06:46 51°11.825 2°47.386 19.619281 0.070861 0.382056 7.612392
2004-05-07 08:06:50 51°11.826 2°47.392 19.594662 0.070861 0.382068 7.646101
2004-05-07 08:06:56 51°11.826 2°47.4 19.6039 0.070861 0.382068 7.612392
2004-05-07 08:07:01 51°11.828 2°47.407 19.601621 0.070861 0.38208 7.612392
2004-05-07 08:07:06 51°11.828 2°47.415 19.600115 0.070861 0.382086 7.612392
2004-05-07 08:07:10 51°11.829 2°47.42 19.600115 0.070861 0.382086 7.612392
2004-05-07 08:07:17 51°11.831 2°47.43 19.628963 0.070861 0.382086 7.612392
2004-05-07 08:07:21 51°11.831 2°47.436 19.598691 0.070861 0.382086 7.612392
2004-05-07 08:07:26 51°11.832 2°47.443 19.634251 0.070861 0.382086 7.612392
2004-05-07 08:07:31 51°11.834 2°47.45 19.62103 0.070861 0.382092 7.612392
2004-05-07 08:07:36 51°11.835 2°47.457 19.620176 0.070861 0.382098 7.612392
2004-05-07 08:07:41 51°11.836 2°47.463 19.620176 0.070861 0.382098 7.612392
2004-05-07 08:07:46 51°11.838 2°47.471 19.620786 0.070861 0.382104 7.612392
2004-05-07 08:07:50 51°11.839 2°47.476 19.597755 0.070861 0.382116 7.612392
2004-05-07 08:07:56 51°11.841 2°47.485 19.616555 0.070861 0.38211 7.646101
2004-05-07 08:08:01 51°11.842 2°47.493 19.58587 0.070861 0.382122 7.646101
2004-05-07 08:08:06 51°11.844 2°47.5 19.619118 0.070861 0.38211 7.578683
2004-05-07 08:08:10 51°11.845 2°47.507 19.619118 0.070861 0.38211 7.578683
2004-05-07 08:08:16 51°11.847 2°47.516 19.612323 0.070861 0.382122 7.612392
2004-05-07 08:08:21 51°11.848 2°47.524 19.600156 0.070861 0.382122 7.646101
2004-05-07 08:08:26 51°11.85 2°47.532 19.620176 0.070861 0.382128 7.612392
2004-05-07 08:08:31 51°11.851 2°47.54 19.617124 0.070861 0.382128 7.646101
2004-05-07 08:08:36 51°11.853 2°47.547 19.626237 0.070861 0.382134 7.646101
2004-05-07 08:08:41 51°11.854 2°47.555 19.626237 0.070861 0.382134 7.646101
2004-05-07 08:08:46 51°11.856 2°47.563 19.623593 0.070861 0.382134 7.612392
2004-05-07 08:08:51 51°11.858 2°47.571 19.609068 0.070861 0.382146 7.612392
2004-05-07 08:08:56 51°11.859 2°47.579 19.608295 0.070861 0.382152 7.612392
2004-05-07 08:09:01 51°11.861 2°47.587 19.619647 0.070861 0.382152 7.612392
2004-05-07 08:09:06 51°11.862 2°47.595 19.636854 0.070861 0.382152 7.578683
2004-05-07 08:09:11 51°11.864 2°47.603 19.636854 0.070861 0.382152 7.578683
2004-05-07 08:09:16 51°11.865 2°47.611 19.629817 0.070861 0.382158 7.612392
2004-05-07 08:09:21 51°11.867 2°47.619 19.627092 0.070861 0.382165 7.578683
2004-05-07 08:09:26 51°11.868 2°47.627 19.623145 0.070861 0.382171 7.578683
2004-05-07 08:09:31 51°11.869 2°47.635 19.624935 0.070861 0.382171 7.612392
2004-05-07 08:09:36 51°11.871 2°47.643 19.623756 0.070861 0.382177 7.578683
2004-05-07 08:09:41 51°11.872 2°47.651 19.623756 0.070861 0.382177 7.578683
2004-05-07 08:09:46 51°11.873 2°47.659 19.625627 0.070861 0.382183 7.578683
2004-05-07 08:09:51 51°11.875 2°47.667 19.638278 0.070861 0.382189 7.578683
2004-05-07 08:09:56 51°11.876 2°47.675 19.625424 0.070861 0.382195 7.612392
2004-05-07 08:10:01 51°11.878 2°47.684 19.621315 0.070861 0.382195 7.646101
2004-05-07 08:10:06 51°11.879 2°47.692 19.627295 0.070861 0.382201 7.578683
2004-05-07 08:10:10 51°11.881 2°47.698 19.627295 0.070861 0.382201 7.578683
2004-05-07 08:10:16 51°11.882 2°47.708 19.623145 0.070861 0.382201 7.578683
2004-05-07 08:10:21 51°11.884 2°47.716 19.62941 0.070861 0.382213 7.578683
2004-05-07 08:10:26 51°11.885 2°47.724 19.629858 0.070861 0.382219 7.612392
2004-05-07 08:10:31 51°11.886 2°47.732 19.637505 0.070861 0.382213 7.646101
2004-05-07 08:10:36 51°11.888 2°47.739 19.635797 0.070861 0.382225 7.646101
2004-05-07 08:10:41 51°11.889 2°47.747 19.635797 0.070861 0.382225 7.646101
2004-05-07 08:10:46 51°11.891 2°47.755 19.634861 0.070861 0.382231 7.646101
2004-05-07 08:10:50 51°11.892 2°47.761 19.637749 0.070861 0.382231 7.646101
2004-05-07 08:10:56 51°11.893 2°47.77 19.629126 0.070861 0.382231 7.612392
2004-05-07 08:11:01 51°11.894 2°47.777 19.623268 0.070861 0.382237 7.612392
2004-05-07 08:11:06 51°11.895 2°47.784 19.616636 0.070861 0.382249 7.612392
2004-05-07 08:11:11 51°11.897 2°47.792 19.616636 0.070861 0.382249 7.612392
2004-05-07 08:11:15 51°11.897 2°47.798 19.611753 0.070861 0.382249 7.646101
2004-05-07 08:11:21 51°11.899 2°47.806 19.623593 0.070861 0.382249 7.612392
2004-05-07 08:11:26 51°11.9 2°47.814 19.628515 0.070861 0.382261 7.612392
2004-05-07 08:11:30 51°11.901 2°47.819 19.630875 0.070861 0.382261 7.612392
2004-05-07 08:11:36 51°11.902 2°47.828 19.632136 0.070861 0.382261 7.646101
2004-05-07 08:11:41 51°11.904 2°47.835 19.632136 0.070861 0.382261 7.646101
2004-05-07 08:11:46 51°11.905 2°47.842 19.628271 0.070861 0.382261 7.612392
2004-05-07 08:11:49 51°11.906 2°47.847 19.614968 0.070861 0.382267 7.612392
2004-05-07 08:11:56 51°11.907 2°47.857 19.61216 0.070861 0.382273 7.612392
2004-05-07 08:12:01 51°11.909 2°47.864 19.636081 0.070861 0.382279 7.612392
2004-05-07 08:12:06 51°11.91 2°47.871 19.627661 0.070861 0.382285 7.578683
2004-05-07 08:12:10 51°11.911 2°47.876 19.627661 0.070861 0.382285 7.578683
2004-05-07 08:12:16 51°11.912 2°47.885 19.631688 0.070861 0.382285 7.612392
2004-05-07 08:12:21 51°11.914 2°47.892 19.648649 0.070861 0.382291 7.612392
2004-05-07 08:12:26 51°11.915 2°47.898 19.624488 0.070861 0.382298 7.578683
2004-05-07 08:12:31 51°11.916 2°47.905 19.632054 0.070861 0.38231 7.612392
2004-05-07 08:12:36 51°11.918 2°47.912 19.626847 0.070861 0.382304 7.578683
2004-05-07 08:12:41 51°11.919 2°47.919 19.626847 0.070861 0.382304 7.578683
2004-05-07 08:12:45 51°11.92 2°47.924 19.632665 0.070861 0.38231 7.578683
2004-05-07 08:12:51 51°11.922 2°47.933 19.638725 0.070861 0.382304 7.612392
2004-05-07 08:12:56 51°11.924 2°47.939 19.632136 0.070861 0.382322 7.612392
2004-05-07 08:13:01 51°11.926 2°47.946 19.633437 0.070861 0.382316 7.578683
2004-05-07 08:13:06 51°11.927 2°47.952 19.640921 0.070861 0.382316 7.612392
2004-05-07 08:13:11 51°11.929 2°47.959 19.640921 0.070861 0.382316 7.612392
2004-05-07 08:13:16 51°11.931 2°47.966 19.635634 0.070861 0.382322 7.578683
2004-05-07 08:13:21 51°11.932 2°47.972 19.641084 0.070861 0.382316 7.612392
2004-05-07 08:13:26 51°11.934 2°47.979 19.647876 0.070861 0.382322 7.612392
2004-05-07 08:13:31 51°11.936 2°47.985 19.636407 0.070861 0.382328 7.612392
2004-05-07 08:13:37 51°11.938 2°47.993 19.635105 0.070861 0.382334 7.646101
2004-05-07 08:13:41 51°11.94 2°47.998 19.635105 0.070861 0.382334 7.646101
2004-05-07 08:13:46 51°11.941 2°48.005 19.630793 0.070861 0.382334 7.646101
2004-05-07 08:13:50 51°11.943 2°48.01 19.64389 0.070861 0.382334 7.578683
2004-05-07 08:13:56 51°11.945 2°48.018 19.646778 0.070861 0.38234 7.578683
2004-05-07 08:14:01 51°11.946 2°48.024 19.630793 0.070757 0.381761 7.612392
2004-05-07 08:14:06 51°11.948 2°48.031 19.64145 0.070861 0.382346 7.612392
2004-05-07 08:14:10 51°11.949 2°48.036 19.64145 0.070861 0.382346 7.612392
2004-05-07 08:14:16 51°11.951 2°48.044 19.632542 0.070861 0.382346 7.612392
2004-05-07 08:14:21 51°11.953 2°48.05 19.635634 0.070861 0.382352 7.612392
2004-05-07 08:14:26 51°11.954 2°48.057 19.633193 0.070861 0.382352 7.578683
2004-05-07 08:14:31 51°11.956 2°48.063 19.623268 0.070861 0.382364 7.612392
2004-05-07 08:14:36 51°11.957 2°48.07 19.639335 0.070757 0.381773 7.612392
2004-05-07 08:14:41 51°11.959 2°48.076 19.639335 0.070757 0.381773 7.612392
2004-05-07 08:14:46 51°11.961 2°48.083 19.641532 0.070861 0.382364 7.612392
2004-05-07 08:14:51 51°11.962 2°48.089 19.638888 0.070861 0.382364 7.612392
2004-05-07 08:14:55 51°11.963 2°48.095 19.642955 0.070861 0.382364 7.612392
2004-05-07 08:15:01 51°11.965 2°48.102 19.656091 0.070861 0.38237 7.612392
2004-05-07 08:15:06 51°11.967 2°48.109 19.653895 0.070861 0.38237 7.578683
2004-05-07 08:15:10 51°11.968 2°48.114 19.653895 0.070861 0.38237 7.578683
2004-05-07 08:15:16 51°11.97 2°48.122 19.641084 0.070861 0.38237 7.578683
2004-05-07 08:15:21 51°11.972 2°48.128 19.646249 0.070861 0.382382 7.612392
2004-05-07 08:15:26 51°11.973 2°48.135 19.649706 0.070861 0.382382 7.612392
2004-05-07 08:15:29 51°11.974 2°48.138 19.639173 0.070861 0.382382 7.612392
2004-05-07 08:15:36 51°11.977 2°48.148 19.643728 0.070861 0.382382 7.578683
2004-05-07 08:15:41 51°11.978 2°48.154 19.643728 0.070861 0.382382 7.578683
2004-05-07 08:15:46 51°11.98 2°48.161 19.637668 0.070861 0.382388 7.612392
2004-05-07 08:15:51 51°11.981 2°48.167 19.646778 0.070861 0.382394 7.578683
2004-05-07 08:15:55 51°11.982 2°48.172 19.642752 0.070861 0.3824 7.612392
2004-05-07 08:16:01 51°11.985 2°48.18 19.634658 0.070861 0.3824 7.612392
2004-05-07 08:16:06 51°11.986 2°48.187 19.639335 0.070861 0.382406 7.578683
2004-05-07 08:16:11 51°11.988 2°48.193 19.639335 0.070861 0.382406 7.578683
2004-05-07 08:16:16 51°11.989 2°48.2 19.641776 0.070861 0.382412 7.578683
2004-05-07 08:16:21 51°11.991 2°48.207 19.639579 0.070861 0.382418 7.578683
2004-05-07 08:16:26 51°11.992 2°48.213 19.641369 0.070861 0.382418 7.578683
2004-05-07 08:16:30 51°11.993 2°48.218 19.64328 0.070861 0.382425 7.612392
2004-05-07 08:16:36 51°11.995 2°48.226 19.640189 0.070861 0.382418 7.578683
2004-05-07 08:16:41 51°11.996 2°48.233 19.640189 0.070861 0.382418 7.578683
2004-05-07 08:16:46 51°11.998 2°48.24 19.648201 0.070861 0.382431 7.544973
2004-05-07 08:16:49 51°11.999 2°48.243 19.650031 0.070861 0.382437 7.578683
2004-05-07 08:16:56 51°12.002 2°48.252 19.63539 0.070861 0.382437 7.578683
2004-05-07 08:17:01 51°12.003 2°48.259 19.639864 0.070861 0.382449 7.578683
2004-05-07 08:17:06 51°12.005 2°48.265 19.639579 0.070861 0.382449 7.612392
2004-05-07 08:17:11 51°12.007 2°48.271 19.639579 0.070861 0.382449 7.612392
2004-05-07 08:17:16 51°12.009 2°48.278 19.632054 0.070861 0.382449 7.612392
2004-05-07 08:17:21 51°12.012 2°48.284 19.63539 0.070861 0.382455 7.612392
2004-05-07 08:17:25 51°12.013 2°48.288 19.649421 0.070861 0.382461 7.612392
2004-05-07 08:17:31 51°12.016 2°48.295 19.645477 0.070861 0.382461 7.578683
2004-05-07 08:17:35 51°12.018 2°48.3 19.650113 0.070861 0.382461 7.578683
2004-05-07 08:17:41 51°12.021 2°48.307 19.650113 0.070861 0.382461 7.578683
2004-05-07 08:17:46 51°12.024 2°48.313 19.647835 0.070861 0.382467 7.578683
2004-05-07 08:17:50 51°12.026 2°48.317 19.647957 0.070861 0.382473 7.612392
2004-05-07 08:17:56 51°12.029 2°48.324 19.64873 0.070861 0.382479 7.612392
2004-05-07 08:18:01 51°12.031 2°48.33 19.650235 0.070861 0.382479 7.612392
2004-05-07 08:18:06 51°12.034 2°48.335 19.648649 0.070861 0.382485 7.578683
2004-05-07 08:18:10 51°12.036 2°48.34 19.648649 0.070861 0.382485 7.578683
2004-05-07 08:18:16 51°12.039 2°48.346 19.64328 0.070861 0.382485 7.578683
2004-05-07 08:18:21 51°12.042 2°48.352 19.641084 0.070861 0.382497 7.578683
2004-05-07 08:18:26 51°12.044 2°48.357 19.641247 0.070861 0.382503 7.612392
2004-05-07 08:18:31 51°12.047 2°48.363 19.645111 0.070861 0.382503 7.612392
2004-05-07 08:18:35 51°12.049 2°48.368 19.644785 0.070757 0.381936 7.612392
2004-05-07 08:18:41 51°12.052 2°48.374 19.644785 0.070757 0.381936 7.612392
2004-05-07 08:18:46 51°12.055 2°48.38 19.658937 0.070861 0.382509 7.612392
2004-05-07 08:18:51 51°12.057 2°48.385 19.645314 0.070861 0.382515 7.578683
2004-05-07 08:18:56 51°12.06 2°48.391 19.645843 0.070861 0.382521 7.578683
2004-05-07 08:19:01 51°12.062 2°48.396 19.645761 0.070861 0.382521 7.578683
2004-05-07 08:19:06 51°12.065 2°48.402 19.649015 0.070757 0.381954 7.612392
2004-05-07 08:19:09 51°12.067 2°48.405 19.649015 0.070757 0.381954 7.612392
2004-05-07 08:19:14 51°12.069 2°48.411 19.64995 0.070861 0.38254 7.612392
2004-05-07 08:19:21 51°12.073 2°48.419 19.653813 0.070757 0.38196 7.578683
2004-05-07 08:19:26 51°12.075 2°48.424 19.644948 0.070861 0.382552 7.578683
2004-05-07 08:19:30 51°12.078 2°48.429 19.648811 0.070861 0.382552 7.544973
2004-05-07 08:19:36 51°12.081 2°48.436 19.653732 0.070861 0.382552 7.578683
2004-05-07 08:19:41 51°12.083 2°48.441 19.653732 0.070861 0.382552 7.578683
2004-05-07 08:19:46 51°12.086 2°48.447 19.648364 0.070861 0.382564 7.612392
2004-05-07 08:19:50 51°12.088 2°48.451 19.646534 0.070861 0.382564 7.612392
2004-05-07 08:19:56 51°12.091 2°48.458 19.646819 0.070861 0.382576 7.578683
2004-05-07 08:20:01 51°12.093 2°48.464 19.639783 0.070861 0.382582 7.578683
2004-05-07 08:20:06 51°12.096 2°48.47 19.639579 0.070861 0.382588 7.612392
2004-05-07 08:20:11 51°12.098 2°48.475 19.639579 0.070861 0.382588 7.612392
2004-05-07 08:20:16 51°12.101 2°48.481 19.652512 0.070861 0.382588 7.612392
2004-05-07 08:20:21 51°12.103 2°48.487 19.642752 0.070757 0.382014 7.578683
2004-05-07 08:20:26 51°12.106 2°48.492 19.647754 0.070757 0.38202 7.578683
2004-05-07 08:20:30 51°12.108 2°48.497 19.656375 0.070757 0.38202 7.578683
2004-05-07 08:20:35 51°12.11 2°48.503 19.655562 0.070757 0.382033 7.578683
2004-05-07 08:20:41 51°12.113 2°48.51 19.655562 0.070757 0.382033 7.578683
2004-05-07 08:20:46 51°12.116 2°48.516 19.652146 0.070757 0.382033 7.612392
2004-05-07 08:20:50 51°12.117 2°48.521 19.644704 0.070861 0.382618 7.578683
2004-05-07 08:20:57 51°12.121 2°48.529 19.646534 0.070757 0.382045 7.578683
2004-05-07 08:21:01 51°12.123 2°48.534 19.658286 0.070861 0.382624 7.612392
2004-05-07 08:21:06 51°12.125 2°48.54 19.649625 0.070861 0.382636 7.612392
2004-05-07 08:21:10 51°12.127 2°48.544 19.649625 0.070861 0.382636 7.612392
2004-05-07 08:21:16 51°12.13 2°48.552 19.644419 0.070757 0.382063 7.612392
2004-05-07 08:21:21 51°12.133 2°48.558 19.642142 0.070861 0.382649 7.612392
2004-05-07 08:21:26 51°12.135 2°48.564 19.641613 0.070757 0.382075 7.612392
2004-05-07 08:21:30 51°12.137 2°48.568 19.653041 0.070757 0.382081 7.578683
2004-05-07 08:21:36 51°12.14 2°48.576 19.660075 0.070757 0.382081 7.612392
2004-05-07 08:21:41 51°12.142 2°48.581 19.660075 0.070757 0.382081 7.612392
2004-05-07 08:21:45 51°12.144 2°48.586 19.648283 0.070757 0.382093 7.578683
2004-05-07 08:21:51 51°12.147 2°48.593 19.652959 0.070757 0.382099 7.578683
2004-05-07 08:21:56 51°12.15 2°48.599 19.653651 0.070757 0.382105 7.578683
2004-05-07 08:22:01 51°12.152 2°48.605 19.647591 0.070757 0.382111 7.578683
2004-05-07 08:22:06 51°12.155 2°48.611 19.651373 0.070757 0.382111 7.578683
2004-05-07 08:22:12 51°12.157 2°48.618 19.651373 0.070757 0.382111 7.578683
2004-05-07 08:22:16 51°12.159 2°48.622 19.651821 0.070757 0.382123 7.612392
2004-05-07 08:22:21 51°12.162 2°48.628 19.652268 0.070861 0.382703 7.612392
2004-05-07 08:22:26 51°12.164 2°48.634 19.655318 0.070757 0.382135 7.612392
2004-05-07 08:22:30 51°12.166 2°48.639 19.657676 0.070757 0.382135 7.612392
2004-05-07 08:22:36 51°12.169 2°48.646 19.656091 0.070861 0.382721 7.612392
2004-05-07 08:22:41 51°12.171 2°48.651 19.656091 0.070861 0.382721 7.612392
2004-05-07 08:22:46 51°12.174 2°48.657 19.657676 0.070757 0.382141 7.578683
2004-05-07 08:22:49 51°12.175 2°48.661 19.654179 0.070757 0.382154 7.578683
2004-05-07 08:22:56 51°12.179 2°48.669 19.645233 0.070757 0.38216 7.612392
2004-05-07 08:23:01 51°12.181 2°48.675 19.633437 0.070757 0.382166 7.612392
2004-05-07 08:23:06 51°12.183 2°48.681 19.636 0.070757 0.382172 7.578683
2004-05-07 08:23:11 51°12.186 2°48.686 19.636 0.070757 0.382172 7.578683
2004-05-07 08:23:15 51°12.188 2°48.691 19.651821 0.070757 0.382172 7.578683
2004-05-07 08:23:21 51°12.19 2°48.698 19.656538 0.070757 0.382178 7.612392
2004-05-07 08:23:26 51°12.193 2°48.704 19.645151 0.070757 0.38219 7.578683
2004-05-07 08:23:31 51°12.195 2°48.709 19.650031 0.070757 0.382196 7.578683
2004-05-07 08:23:36 51°12.198 2°48.715 19.649869 0.070757 0.382202 7.578683
2004-05-07 08:23:41 51°12.2 2°48.721 19.649869 0.070757 0.382202 7.578683
2004-05-07 08:23:46 51°12.202 2°48.726 19.656904 0.070757 0.382208 7.578683
2004-05-07 08:23:49 51°12.204 2°48.73 19.656294 0.070757 0.382208 7.578683
2004-05-07 08:23:54 51°12.206 2°48.736 19.654017 0.070757 0.382214 7.578683
2004-05-07 08:24:01 51°12.21 2°48.744 19.652959 0.070757 0.38222 7.578683
2004-05-07 08:24:05 51°12.211 2°48.748 19.647429 0.070757 0.382226 7.612392
2004-05-07 08:24:11 51°12.215 2°48.755 19.647429 0.070757 0.382226 7.612392
2004-05-07 08:24:16 51°12.217 2°48.761 19.645558 0.070757 0.382238 7.578683
2004-05-07 08:24:21 51°12.219 2°48.767 19.64084 0.070757 0.382244 7.612392
2004-05-07 08:24:26 51°12.222 2°48.773 19.65849 0.070757 0.382244 7.612392
2004-05-07 08:24:30 51°12.224 2°48.777 19.659791 0.070757 0.382244 7.612392
2004-05-07 08:24:36 51°12.226 2°48.784 19.658571 0.070757 0.382257 7.612392
2004-05-07 08:24:41 51°12.229 2°48.79 19.658571 0.070757 0.382257 7.612392
2004-05-07 08:24:46 51°12.231 2°48.796 19.660848 0.070757 0.382263 7.578683
2004-05-07 08:24:51 51°12.234 2°48.801 19.647957 0.070757 0.382269 7.578683
2004-05-07 08:24:55 51°12.235 2°48.806 19.658652 0.070757 0.382275 7.612392
2004-05-07 08:25:01 51°12.239 2°48.813 19.657229 0.070757 0.382281 7.578683
2004-05-07 08:25:05 51°12.24 2°48.818 19.653651 0.070757 0.382287 7.578683
2004-05-07 08:25:11 51°12.243 2°48.824 19.653651 0.070757 0.382287 7.578683
2004-05-07 08:25:16 51°12.246 2°48.83 19.661051 0.070757 0.382287 7.578683
2004-05-07 08:25:21 51°12.248 2°48.836 19.647957 0.070757 0.382299 7.578683
2004-05-07 08:25:26 51°12.25 2°48.842 19.662678 0.070757 0.382305 7.578683
2004-05-07 08:25:31 51°12.253 2°48.848 19.655562 0.070757 0.382305 7.578683
2004-05-07 08:25:36 51°12.255 2°48.853 19.664101 0.070757 0.382317 7.612392
2004-05-07 08:25:41 51°12.257 2°48.859 19.664101 0.070757 0.382317 7.612392
2004-05-07 08:25:46 51°12.26 2°48.865 19.661661 0.070757 0.382323 7.612392
2004-05-07 08:25:50 51°12.262 2°48.87 19.662556 0.070757 0.382323 7.612392
2004-05-07 08:25:56 51°12.264 2°48.876 19.659465 0.070757 0.382335 7.578683
2004-05-07 08:26:01 51°12.267 2°48.882 19.657514 0.070757 0.382335 7.578683
2004-05-07 08:26:06 51°12.269 2°48.888 19.650031 0.070757 0.382341 7.612392
2004-05-07 08:26:10 51°12.271 2°48.893 19.650031 0.070757 0.382341 7.612392
2004-05-07 08:26:16 51°12.274 2°48.899 19.648039 0.070757 0.382353 7.578683
2004-05-07 08:26:21 51°12.276 2°48.905 19.650316 0.070757 0.382353 7.544973
2004-05-07 08:26:26 51°12.278 2°48.911 19.648283 0.070757 0.38236 7.578683
2004-05-07 08:26:30 51°12.28 2°48.915 19.662962 0.070757 0.382366 7.544973
2004-05-07 08:26:36 51°12.283 2°48.922 19.654261 0.070757 0.382372 7.578683
2004-05-07 08:26:41 51°12.285 2°48.928 19.654261 0.070757 0.382372 7.578683
2004-05-07 08:26:45 51°12.287 2°48.933 19.65727 0.070757 0.382372 7.578683
2004-05-07 08:26:50 51°12.289 2°48.938 19.657351 0.070757 0.382378 7.612392
2004-05-07 08:26:56 51°12.292 2°48.945 19.648811 0.070757 0.38239 7.544973
2004-05-07 08:27:01 51°12.294 2°48.951 19.6628 0.070757 0.38239 7.612392
2004-05-07 08:27:06 51°12.296 2°48.957 19.652675 0.070757 0.382396 7.578683
2004-05-07 08:27:10 51°12.298 2°48.961 19.652675 0.070757 0.382396 7.578683
2004-05-07 08:27:16 51°12.301 2°48.968 19.659709 0.070757 0.382402 7.612392
2004-05-07 08:27:21 51°12.303 2°48.974 19.651699 0.070757 0.382414 7.578683
2004-05-07 08:27:26 51°12.306 2°48.979 19.64751 0.070757 0.382414 7.578683
2004-05-07 08:27:31 51°12.308 2°48.985 19.661986 0.070757 0.38242 7.578683
2004-05-07 08:27:36 51°12.31 2°48.991 19.654708 0.070757 0.382426 7.578683
2004-05-07 08:27:41 51°12.313 2°48.996 19.654708 0.070757 0.382426 7.578683
2004-05-07 08:27:46 51°12.315 2°49.002 19.654627 0.070757 0.382432 7.612392
2004-05-07 08:27:50 51°12.317 2°49.007 19.651251 0.070757 0.382438 7.612392
2004-05-07 08:27:56 51°12.32 2°49.013 19.659262 0.070757 0.382438 7.578683
2004-05-07 08:28:01 51°12.323 2°49.019 19.660401 0.070757 0.382444 7.612392
2004-05-07 08:28:06 51°12.325 2°49.025 19.652756 0.070757 0.38245 7.612392
2004-05-07 08:28:09 51°12.327 2°49.028 19.652756 0.070757 0.38245 7.612392
2004-05-07 08:28:16 51°12.33 2°49.036 19.658408 0.070757 0.382463 7.612392
2004-05-07 08:28:21 51°12.333 2°49.042 19.653041 0.070757 0.382469 7.578683
2004-05-07 08:28:25 51°12.335 2°49.046 19.654871 0.070757 0.382469 7.544973
2004-05-07 08:28:31 51°12.338 2°49.053 19.656741 0.070757 0.382475 7.578683
2004-05-07 08:28:36 51°12.34 2°49.059 19.660685 0.070757 0.382481 7.578683
2004-05-07 08:28:41 51°12.343 2°49.065 19.660685 0.070757 0.382481 7.578683
2004-05-07 08:28:46 51°12.345 2°49.07 19.655237 0.070757 0.382487 7.544973
2004-05-07 08:28:51 51°12.348 2°49.076 19.658042 0.070757 0.382493 7.578683
2004-05-07 08:28:56 51°12.35 2°49.082 19.659628 0.070757 0.382493 7.578683
2004-05-07 08:29:01 51°12.353 2°49.087 19.658937 0.070757 0.382505 7.544973
2004-05-07 08:29:06 51°12.355 2°49.093 19.65727 0.070757 0.382505 7.578683
2004-05-07 08:29:10 51°12.357 2°49.098 19.65727 0.070757 0.382505 7.578683
2004-05-07 08:29:16 51°12.36 2°49.104 19.656213 0.070757 0.382511 7.578683
2004-05-07 08:29:21 51°12.363 2°49.11 19.660238 0.070757 0.382517 7.578683
2004-05-07 08:29:26 51°12.365 2°49.116 19.660401 0.070757 0.382517 7.578683
2004-05-07 08:29:30 51°12.367 2°49.12 19.658327 0.070757 0.382523 7.578683
2004-05-07 08:29:37 51°12.37 2°49.128 19.657758 0.070757 0.382529 7.612392
2004-05-07 08:29:41 51°12.372 2°49.132 19.657758 0.070757 0.382529 7.612392
2004-05-07 08:29:46 51°12.375 2°49.138 19.659344 0.070757 0.382529 7.578683
2004-05-07 08:29:51 51°12.377 2°49.144 19.659628 0.070757 0.382541 7.578683
2004-05-07 08:29:56 51°12.379 2°49.149 19.659994 0.070757 0.382548 7.578683
2004-05-07 08:30:01 51°12.382 2°49.155 19.656294 0.070757 0.382548 7.578683
2004-05-07 08:30:05 51°12.384 2°49.159 19.665605 0.070757 0.382554 7.578683
2004-05-07 08:30:10 51°12.386 2°49.165 19.665605 0.070757 0.382554 7.578683
2004-05-07 08:30:16 51°12.389 2°49.172 19.659344 0.070757 0.38256 7.578683
2004-05-07 08:30:21 51°12.391 2°49.177 19.66036 0.070757 0.382566 7.578683
2004-05-07 08:30:26 51°12.393 2°49.182 19.664182 0.070757 0.382566 7.578683
2004-05-07 08:30:31 51°12.395 2°49.188 19.658652 0.070757 0.382572 7.578683
2004-05-07 08:30:36 51°12.397 2°49.194 19.658327 0.070757 0.382578 7.612392
2004-05-07 08:30:41 51°12.399 2°49.199 19.658327 0.070757 0.382578 7.612392
2004-05-07 08:30:46 51°12.402 2°49.205 19.654871 0.070757 0.382578 7.578683
2004-05-07 08:30:49 51°12.403 2°49.209 19.653895 0.070757 0.382584 7.578683
2004-05-07 08:30:56 51°12.406 2°49.216 19.654708 0.070757 0.382584 7.544973
2004-05-07 08:31:01 51°12.409 2°49.222 19.660848 0.070757 0.382596 7.578683
2004-05-07 08:31:06 51°12.411 2°49.228 19.661661 0.070757 0.382596 7.578683
2004-05-07 08:31:11 51°12.413 2°49.233 19.661661 0.070757 0.382596 7.578683
2004-05-07 08:31:16 51°12.415 2°49.239 19.660157 0.070757 0.382602 7.578683
2004-05-07 08:31:21 51°12.417 2°49.244 19.660889 0.070757 0.382608 7.578683
2004-05-07 08:31:26 51°12.419 2°49.25 19.660238 0.070757 0.382608 7.578683
2004-05-07 08:31:31 51°12.421 2°49.256 19.660767 0.070757 0.382614 7.544973
2004-05-07 08:31:36 51°12.423 2°49.261 19.668776 0.070757 0.382614 7.578683
2004-05-07 08:31:41 51°12.425 2°49.267 19.668776 0.070757 0.382614 7.578683
2004-05-07 08:31:46 51°12.427 2°49.272 19.665524 0.070757 0.38262 7.578683
2004-05-07 08:31:51 51°12.429 2°49.278 19.665442 0.070757 0.382626 7.578683
2004-05-07 08:31:56 51°12.431 2°49.284 19.661661 0.070757 0.382626 7.544973
2004-05-07 08:32:01 51°12.432 2°49.29 19.660238 0.070757 0.382626 7.578683
2004-05-07 08:32:05 51°12.434 2°49.295 19.661295 0.070757 0.382639 7.578683
2004-05-07 08:32:10 51°12.435 2°49.301 19.661295 0.070757 0.382639 7.578683
2004-05-07 08:32:15 51°12.436 2°49.306 19.662678 0.070757 0.382645 7.544973
2004-05-07 08:32:21 51°12.438 2°49.313 19.6628 0.070757 0.382645 7.578683
2004-05-07 08:32:26 51°12.439 2°49.319 19.661458 0.070757 0.382657 7.612392
2004-05-07 08:32:30 51°12.441 2°49.324 19.656131 0.070757 0.382663 7.578683
2004-05-07 08:32:36 51°12.442 2°49.331 19.662434 0.070757 0.382663 7.578683
2004-05-07 08:32:41 51°12.444 2°49.336 19.662434 0.070757 0.382663 7.578683
2004-05-07 08:32:46 51°12.445 2°49.342 19.655765 0.070757 0.382669 7.578683
2004-05-07 08:32:50 51°12.446 2°49.347 19.661986 0.070757 0.382675 7.544973
2004-05-07 08:32:56 51°12.448 2°49.353 19.657758 0.070757 0.382675 7.578683
2004-05-07 08:33:01 51°12.449 2°49.359 19.656375 0.070757 0.382681 7.578683
2004-05-07 08:33:05 51°12.45 2°49.363 19.656091 0.070757 0.382687 7.578683
2004-05-07 08:33:11 51°12.452 2°49.37 19.656091 0.070757 0.382687 7.578683
2004-05-07 08:33:16 51°12.454 2°49.375 19.657961 0.070757 0.382687 7.578683
2004-05-07 08:33:21 51°12.455 2°49.38 19.659547 0.070757 0.382693 7.578683
2004-05-07 08:33:26 51°12.457 2°49.386 19.657798 0.070757 0.382699 7.578683
2004-05-07 08:33:30 51°12.458 2°49.39 19.656456 0.070757 0.382693 7.578683
2004-05-07 08:33:36 51°12.46 2°49.397 19.654627 0.070757 0.382699 7.578683
2004-05-07 08:33:41 51°12.462 2°49.402 19.654627 0.070757 0.382699 7.578683
2004-05-07 08:33:46 51°12.463 2°49.407 19.653203 0.070757 0.382705 7.578683
2004-05-07 08:33:50 51°12.465 2°49.412 19.653285 0.070757 0.382705 7.544973
2004-05-07 08:33:57 51°12.467 2°49.418 19.662068 0.070757 0.382711 7.578683
2004-05-07 08:34:01 51°12.469 2°49.422 19.660929 0.070757 0.382724 7.578683
2004-05-07 08:34:06 51°12.47 2°49.427 19.662352 0.070757 0.382724 7.578683
2004-05-07 08:34:10 51°12.472 2°49.429 19.662352 0.070757 0.382724 7.578683
2004-05-07 08:34:16 51°12.474 2°49.434 19.66589 0.070757 0.382736 7.578683
2004-05-07 08:34:21 51°12.476 2°49.437 19.658124 0.070757 0.382742 7.544973
2004-05-07 08:34:26 51°12.478 2°49.44 19.664263 0.070757 0.382748 7.578683
2004-05-07 08:34:30 51°12.479 2°49.443 19.657432 0.070757 0.382754 7.578683
2004-05-07 08:34:36 51°12.482 2°49.446 19.659994 0.070757 0.38276 7.544973
2004-05-07 08:34:41 51°12.483 2°49.448 19.659994 0.070757 0.38276 7.544973
2004-05-07 08:34:46 51°12.485 2°49.451 19.656619 0.070757 0.382766 7.578683
2004-05-07 08:34:51 51°12.487 2°49.452 19.658042 0.070757 0.38276 7.578683
2004-05-07 08:34:56 51°12.489 2°49.454 19.659018 0.070757 0.382766 7.578683
2004-05-07 08:35:01 51°12.49 2°49.456 19.655155 0.070757 0.382766 7.578683
2004-05-07 08:35:06 51°12.492 2°49.457 19.661824 0.070757 0.382766 7.544973
2004-05-07 08:35:11 51°12.494 2°49.458 19.661824 0.070757 0.382766 7.544973
2004-05-07 08:35:16 51°12.495 2°49.46 19.661214 0.070757 0.382766 7.578683
2004-05-07 08:35:21 51°12.497 2°49.46 19.6591 0.070757 0.382772 7.578683
2004-05-07 08:35:26 51°12.498 2°49.461 19.656131 0.070757 0.382772 7.578683
2004-05-07 08:35:31 51°12.5 2°49.462 19.655928 0.070757 0.382778 7.544973
2004-05-07 08:35:36 51°12.501 2°49.463 19.657595 0.070757 0.382778 7.544973
2004-05-07 08:35:41 51°12.503 2°49.463 19.657595 0.070757 0.382778 7.544973
2004-05-07 08:35:46 51°12.504 2°49.463 19.658896 0.070757 0.382784 7.578683
2004-05-07 08:35:51 51°12.506 2°49.463 19.657676 0.070757 0.38279 7.578683
2004-05-07 08:35:54 51°12.506 2°49.464 19.660238 0.070757 0.38279 7.544973
2004-05-07 08:36:01 51°12.508 2°49.464 19.656904 0.070757 0.382803 7.578683
2004-05-07 08:36:05 51°12.509 2°49.464 19.653569 0.070757 0.382809 7.544973
2004-05-07 08:36:10 51°12.511 2°49.464 19.653569 0.070757 0.382809 7.544973
2004-05-07 08:36:16 51°12.512 2°49.463 19.655684 0.070757 0.382809 7.578683
2004-05-07 08:36:21 51°12.513 2°49.463 19.656538 0.070757 0.382809 7.578683
2004-05-07 08:36:26 51°12.515 2°49.463 19.658937 0.070757 0.382815 7.578683
2004-05-07 08:36:30 51°12.515 2°49.463 19.656213 0.070653 0.38224 7.544973
2004-05-07 08:36:36 51°12.517 2°49.462 19.661539 0.070653 0.382246 7.578683
2004-05-07 08:36:41 51°12.518 2°49.461 19.661539 0.070653 0.382246 7.578683
2004-05-07 08:36:46 51°12.519 2°49.461 19.661377 0.070653 0.382246 7.544973
2004-05-07 08:36:51 51°12.52 2°49.46 19.664304 0.070757 0.382833 7.544973
2004-05-07 08:36:56 51°12.521 2°49.46 19.663572 0.070757 0.382833 7.544973
2004-05-07 08:37:01 51°12.522 2°49.459 19.662759 0.070653 0.382258 7.578683
2004-05-07 08:37:06 51°12.523 2°49.458 19.664304 0.070757 0.382845 7.612392
2004-05-07 08:37:11 51°12.524 2°49.457 19.664304 0.070757 0.382845 7.612392
2004-05-07 08:37:17 51°12.525 2°49.456 19.66097 0.070757 0.382857 7.544973
2004-05-07 08:37:21 51°12.525 2°49.455 19.660319 0.070653 0.38227 7.578683
2004-05-07 08:37:25 51°12.526 2°49.455 19.664263 0.070653 0.382282 7.578683
2004-05-07 08:37:30 51°12.527 2°49.454 19.662962 0.070653 0.382282 7.544973
2004-05-07 08:37:36 51°12.528 2°49.452 19.660848 0.070653 0.382289 7.578683
2004-05-07 08:37:41 51°12.528 2°49.451 19.660848 0.070653 0.382289 7.578683
2004-05-07 08:37:46 51°12.529 2°49.45 19.659709 0.070653 0.382295 7.578683
2004-05-07 08:37:51 51°12.53 2°49.449 19.659994 0.070653 0.382301 7.578683
2004-05-07 08:37:56 51°12.531 2°49.448 19.663328 0.070653 0.382301 7.544973
2004-05-07 08:38:01 51°12.531 2°49.446 19.659547 0.070653 0.382307 7.578683
2004-05-07 08:38:06 51°12.532 2°49.445 19.660523 0.070653 0.382307 7.544973